GFSSE_con_mlcape_042.txt.gz
CAPE
667 563 357 303 223 108 76 60 44 12 0 0 0 0 0 0 0 0 0 0 0 0 0 0 0 52 163 189 17 0 0 0 0 0 0 0 0 0 3 6 18 38 156
713 576 399 330 129 31 13 3 0 0 0 0 0 0 0 0 0 0 0 0 0 0 0 0 0 0 1 124 84 0 0 0 0 0 0 0 0 0 0 0 0 6 87
752 589 441 243 76 25 0 0 0 0 0 0 0 0 0 0 0 0 0 0 0 0 0 11 76 8 0 0 29 0 0 0 0 0 0 0 0 0 0 0 0 0 2
734 513 386 310 130 29 0 0 0 0 0 1 12 13 7 0 0 0 0 0 0 0 0 30 36 9 0 0 0 0 0 0 0 0 0 0 0 0 0 0 0 0 0
658 424 354 295 120 16 0 0 0 0 0 11 16 20 13 2 0 0 0 0 0 0 0 0 2 15 7 0 0 0 0 0 0 0 0 0 0 3 3 4 1 0 0
567 374 370 260 104 2 0 0 3 10 34 37 36 37 36 21 14 23 17 2 0 0 0 0 0 0 0 0 0 0 0 0 0 0 0 0 0 1 2 6 6 9 7
559 435 298 130 51 54 55 30 23 51 82 82 92 102 79 59 31 31 18 16 0 0 0 0 0 0 0 0 0 0 0 0 0 0 0 0 0 1 0 1 4 5 5
354 352 232 118 132 213 171 41 93 123 133 144 141 138 99 51 15 1 0 0 0 0 0 0 0 0 0 0 0 0 0 0 0 0 0 0 0 0 1 0 0 0 1
46 113 69 16 23 126 134 113 175 182 166 162 120 109 44 9 0 0 0 0 0 0 0 0 0 0 0 0 0 0 0 0 0 0 0 0 0 0 0 0 0 0 0
1 2 3 0 0 73 134 252 255 203 179 91 43 2 0 0 0 0 0 0 0 0 0 0 0 0 0 0 0 0 0 0 0 0 0 0 0 9 7 0 0 0 0
0 0 8 8 36 79 111 180 217 232 67 22 0 0 0 0 0 0 0 0 0 0 0 0 0 0 0 0 0 0 0 0 0 0 0 0 0 0 14 9 0 0 0
4 0 0 0 6 5 0 34 42 93 17 0 0 0 0 0 0 0 0 0 0 0 0 0 0 0 0 0 0 0 0 0 0 0 0 0 0 0 15 17 6 0 0
5 1 0 0 11 46 7 4 14 1 0 0 0 0 0 0 0 0 0 0 0 0 0 0 0 0 0 0 0 0 0 0 0 0 0 0 0 0 2 19 12 0 0
1 0 0 6 26 109 19 0 0 0 0 0 0 0 0 0 0 0 0 0 0 0 0 0 0 0 0 0 0 0 0 0 0 0 0 0 0 0 0 19 8 4 0
0 0 0 5 78 42 14 0 0 0 0 0 0 0 0 9 0 0 0 0 0 0 0 0 0 0 0 0 0 0 0 0 0 0 0 0 0 0 0 21 8 8 5
0 0 0 14 75 35 0 0 0 0 0 0 0 20 41 13 0 0 0 0 0 0 0 0 0 0 0 0 0 0 0 0 0 0 0 0 0 0 9 0 0 1 1
0 0 0 4 91 12 0 0 0 0 5 107 69 3 12 0 0 0 0 0 0 0 0 0 0 0 0 0 0 0 0 0 0 0 0 0 0 0 0 0 0 0 0
0 0 0 37 106 1 0 0 0 0 24 0 0 0 0 0 0 0 0 0 0 0 0 0 0 0 0 0 0 0 0 0 0 0 0 0 0 0 0 0 0 0 0
0 6 29 68 102 7 0 0 0 0 3 0 0 0 0 0 0 0 0 0 0 0 0 0 0 0 0 0 0 0 0 0 0 0 0 0 0 0 0 0 0 0 0
0 8 51 93 92 4 0 0 0 0 0 0 0 0 0 0 0 0 0 0 0 0 0 0 0 0 0 0 0 0 0 0 0 0 0 0 0 0 0 0 0 0 0
0 25 57 119 82 14 0 0 0 10 0 0 0 0 0 0 0 0 0 0 0 0 0 0 0 0 0 0 0 0 0 0 0 0 0 0 0 0 0 0 0 0 0
37 36 53 81 91 52 0 0 0 0 0 0 0 0 0 0 0 0 0 0 0 0 0 0 0 0 0 0 0 0 0 0 0 0 0 0 0 0 0 0 0 0 0
124 78 59 92 94 38 2 0 0 0 0 0 0 0 0 0 0 0 0 0 0 0 0 0 0 0 0 0 0 0 0 0 0 0 0 0 0 0 0 0 0 0 0
224 83 120 117 74 9 0 0 0 0 0 0 0 0 0 0 0 0 0 0 0 0 0 0 0 0 0 0 0 0 0 0 0 0 0 0 0 0 0 0 0 0 0
239 127 143 96 41 1 0 0 0 0 0 0 0 0 0 0 0 0 0 0 0 0 0 0 0 0 0 0 0 0 0 0 0 0 0 0 0 0 0 0 0 0 0
170 167 161 146 88 1 0 0 0 0 0 0 0 0 0 0 0 0 0 0 0 0 0 0 0 0 0 0 0 0 0 0 0 0 0 0 0 0 0 0 0 0 0

GFSSE_con_mlcape_045.txt.gz
CAPE
540 454 330 248 138 90 152 151 81 31 0 0 0 0 0 0 0 0 0 21 44 76 157 223 272 156 0 0 0 0 0 0 0 0 0 0 0 0 1 1 6 32 111
608 454 376 376 265 76 22 21 9 0 0 0 0 0 0 0 1 0 0 1 0 0 1 55 239 252 33 0 0 0 0 0 0 0 0 0 0 0 0 0 0 8 8
650 499 428 370 316 144 33 0 0 0 0 0 0 9 18 2 0 0 0 0 4 20 30 27 44 209 170 0 0 0 0 0 0 0 0 0 0 0 0 0 0 0 1
706 540 436 340 265 161 70 29 0 1 14 12 33 38 2 0 1 0 0 0 81 206 194 109 34 78 144 0 0 0 0 0 0 0 0 0 0 5 4 2 1 0 0
680 570 459 309 154 81 21 1 10 44 46 50 34 17 13 6 1 4 0 0 50 204 217 168 133 116 9 0 0 0 0 0 0 0 0 0 1 11 11 15 16 15 8
679 572 426 210 93 2 11 17 43 96 79 67 32 30 17 26 26 30 0 0 0 61 175 187 52 0 0 0 0 0 0 0 0 0 0 0 2 5 5 8 9 22 22
714 521 335 114 55 43 10 11 45 61 62 49 61 60 68 75 64 18 0 0 0 0 3 0 0 0 0 0 0 0 0 0 0 0 0 0 3 1 0 0 3 5 4
515 400 299 42 140 145 82 55 74 72 77 113 104 111 110 75 52 9 0 0 0 0 0 0 0 0 0 0 0 0 0 0 0 0 0 0 0 2 0 0 0 1 3
193 305 107 55 35 39 242 53 73 79 145 174 119 79 48 14 10 0 0 0 0 0 0 0 0 0 0 0 0 0 0 0 0 0 0 0 0 1 0 0 0 0 0
4 3 2 0 13 22 246 160 78 130 164 177 84 8 0 0 0 0 0 0 0 0 0 0 0 0 0 0 0 0 0 0 0 0 0 0 0 11 6 0 0 0 0
4 3 0 1 6 46 248 291 131 142 135 57 29 0 0 0 0 0 0 0 0 0 0 0 0 0 0 0 0 0 0 0 0 0 0 0 0 9 12 10 0 0 0
3 3 0 0 0 18 180 142 107 80 67 16 1 0 0 0 0 0 0 0 0 0 0 0 0 0 0 0 0 0 0 0 0 0 0 0 0 0 18 8 0 0 0
1 5 9 0 0 31 27 15 8 44 1 0 0 0 0 0 0 0 0 0 0 0 0 0 0 0 0 0 0 0 0 0 0 0 0 0 0 0 17 1 3 0 0
1 3 0 0 0 23 11 45 31 7 0 0 0 0 0 0 0 0 0 0 0 0 0 0 0 0 0 0 0 0 0 0 0 0 0 0 0 0 11 2 0 2 0
0 4 2 34 60 45 40 33 8 0 0 0 0 0 0 0 0 0 0 0 0 0 0 0 0 0 0 0 0 0 0 0 0 0 0 0 0 0 5 7 1 3 1
3 0 14 54 55 106 22 0 0 0 0 0 0 18 54 27 0 0 0 0 0 0 0 0 0 0 0 0 0 0 0 0 0 0 0 0 0 0 7 1 2 0 0
1 0 0 17 125 67 9 0 0 0 0 0 0 1 41 11 0 0 0 0 0 0 0 0 0 0 0 0 0 0 0 0 0 0 0 0 0 0 0 0 0 0 1
0 0 0 10 98 59 0 0 0 0 4 58 69 34 6 0 0 0 0 0 0 0 0 0 0 0 0 0 0 0 0 0 0 0 0 0 0 0 0 0 0 0 0
0 0 0 1 142 76 0 0 0 0 46 63 0 0 0 0 0 0 0 0 0 0 0 0 0 0 0 0 0 0 0 0 0 0 0 0 0 0 0 0 0 0 0
7 0 0 0 111 166 0 0 0 0 26 15 1 0 0 0 0 0 0 0 0 0 0 0 0 0 0 0 0 0 0 0 0 0 0 0 0 0 0 0 0 0 0
18 10 8 52 117 115 10 0 0 0 0 0 0 0 0 0 0 0 0 0 0 0 0 0 0 0 0 0 0 0 0 0 0 0 0 0 0 0 0 0 0 0 0
10 19 34 61 132 139 57 0 0 0 3 0 0 0 0 0 0 0 0 0 0 0 0 0 0 0 0 0 0 0 0 0 0 0 0 0 0 0 0 0 0 0 0
77 21 61 96 142 191 89 3 0 0 0 0 0 0 0 0 0 0 0 0 0 0 0 0 0 0 0 0 0 0 0 0 0 0 0 0 0 0 0 0 0 0 0
176 94 37 103 94 127 81 38 0 0 6 0 0 0 0 0 0 0 0 0 0 0 0 0 0 0 0 0 0 0 0 0 0 0 0 0 0 0 0 0 0 0 0
355 195 107 92 81 68 59 65 0 0 0 0 0 0 0 0 0 0 0 0 0 0 0 0 0 0 0 0 0 0 0 0 0 0 0 0 0 0 0 0 0 0 0
488 278 192 95 100 74 51 27 1 0 0 0 0 0 0 0 0 0 0 0 0 0 0 0 0 0 0 0 0 0 0 0 0 0 0 0 0 0 0 0 2 0 0

GFSSE_con_mlcape_048.txt.gz
CAPE
743 312 454 626 699 668 584 508 421 271 110 4 0 0 0 0 0 0 72 125 228 290 243 20 0 0 0 0 0 0 0 0 0 0 0 0 0 0 0 2 23 21 104
837 276 414 611 681 589 528 393 235 50 0 0 0 0 0 0 2 64 110 219 273 305 314 114 0 0 0 0 0 0 0 0 0 0 0 0 0 0 0 0 0 13 19
947 353 293 502 599 536 366 142 34 6 0 0 1 4 9 5 39 7 0 25 91 265 349 245 0 0 0 0 0 0 0 0 0 0 0 0 0 2 1 0 0 1 6
966 461 204 446 415 277 111 35 9 0 0 7 29 16 11 44 15 12 9 59 115 138 242 302 8 0 0 0 0 0 0 0 0 0 0 0 0 4 10 6 4 3 1
959 587 426 492 335 95 30 11 6 15 39 62 29 31 57 45 29 20 169 246 361 265 204 291 54 0 0 0 0 0 0 0 0 0 0 1 0 1 1 10 24 16 11
969 746 486 376 198 39 17 25 56 77 78 50 48 71 69 52 29 51 144 422 440 364 322 287 0 0 0 0 0 0 0 0 0 0 1 0 0 2 2 8 2 1 4
978 708 415 212 150 119 89 132 118 80 61 45 75 110 90 48 48 36 85 220 429 410 195 0 0 0 0 0 0 0 0 0 0 0 0 1 0 0 0 0 0 0 4
728 473 267 127 131 110 157 201 123 94 67 71 117 140 107 67 48 36 29 83 112 31 0 0 0 0 0 0 0 0 0 0 0 0 0 0 1 2 0 0 1 1 1
323 235 66 120 40 22 14 165 180 148 160 166 163 119 80 51 28 13 1 0 1 0 0 0 0 0 0 0 0 0 0 0 0 0 0 0 4 2 0 0 0 1 1
102 3 0 0 0 45 57 172 294 214 202 222 128 71 38 17 8 0 0 0 0 0 0 0 0 0 0 0 0 0 0 0 0 0 0 0 11 14 4 0 0 2 2
2 4 2 0 0 0 29 141 321 230 179 64 69 41 0 0 0 0 0 0 0 0 0 0 0 0 0 0 0 0 0 0 0 0 0 0 0 15 8 0 0 0 1
4 3 3 4 0 0 40 110 275 250 131 45 35 5 19 10 0 0 0 0 0 0 0 0 0 0 0 0 0 0 0 0 0 0 0 0 0 19 7 4 1 0 0
2 3 1 0 1 2 28 113 279 219 182 56 108 39 60 36 0 0 0 0 0 0 0 0 0 0 0 0 0 0 0 0 0 0 0 0 0 0 12 4 7 1 0
3 1 1 0 7 23 3 47 65 12 1 18 103 108 85 30 0 0 0 0 0 0 0 0 0 0 0 0 0 0 0 0 0 0 0 0 0 0 24 7 4 3 0
4 1 10 22 23 12 14 69 43 118 30 18 89 84 13 0 0 0 2 0 0 0 0 0 0 0 0 0 0 0 0 0 0 0 0 0 0 0 30 10 2 0 0
0 0 0 14 6 8 23 40 99 87 40 72 8 59 155 0 2 0 9 0 0 0 0 0 0 0 0 0 0 0 0 0 0 0 0 0 0 0 5 0 1 0 0
0 7 11 7 4 0 28 130 75 29 2 6 76 269 311 199 52 0 4 0 0 0 0 0 0 0 0 0 0 0 0 0 0 0 0 0 0 0 0 0 0 0 0
1 7 34 27 21 62 50 2 7 0 40 96 258 424 485 427 267 54 5 0 0 0 0 0 0 0 0 0 0 0 0 0 0 0 0 0 0 0 0 0 0 0 0
0 1 34 93 130 221 168 0 3 7 113 342 504 453 441 280 71 28 0 0 0 0 0 0 0 0 0 0 0 0 0 0 0 0 0 0 0 0 0 0 0 0 0
13 20 64 100 283 422 194 32 0 8 100 395 497 402 265 68 0 0 0 0 0 0 0 0 0 0 0 0 0 0 0 0 0 0 0 0 0 0 0 0 0 0 0
34 64 53 184 326 461 211 14 0 0 100 398 469 370 180 15 0 0 0 0 0 0 0 0 0 0 0 0 0 0 0 0 0 0 0 0 0 0 0 0 0 0 0
45 72 82 109 197 505 362 55 1 0 50 126 302 318 166 15 0 0 0 0 0 0 0 0 0 0 0 0 0 0 0 0 0 0 0 0 0 0 0 0 0 0 0
176 229 138 98 210 447 433 205 36 30 134 198 165 12 0 0 0 0 0 0 0 0 0 0 0 0 0 0 0 0 0 0 0 0 0 0 0 0 0 0 0 0 0
348 182 220 246 316 502 596 359 60 1 24 149 260 112 0 0 0 0 0 0 0 0 0 0 0 0 0 0 0 0 0 0 0 0 0 0 0 0 0 0 0 0 0
498 447 236 234 315 479 609 605 281 22 2 284 389 115 0 0 0 0 0 0 0 0 0 0 0 0 0 0 0 0 0 0 0 0 0 0 0 0 0 0 0 0 0
855 677 661 414 395 447 526 560 580 412 180 225 200 88 0 0 0 0 0 0 0 0 0 0 0 0 0 0 0 0 0 0 0 0 0 0 0 0 0 0 0 1 4

GFSSE_con_mlcape_051.txt.gz
CAPE
835 521 834 1127 1054 830 700 635 496 354 232 58 0 0 2 17 49 50 116 158 211 0 0 0 0 0 0 0 0 0 0 0 0 0 0 0 0 0 0 0 24 67 130
695 547 897 1086 1016 864 739 626 433 288 78 0 0 6 16 38 79 118 309 305 168 0 0 0 0 0 0 0 0 0 0 0 0 0 0 0 0 0 0 0 0 7 7
649 595 960 1013 1004 892 743 559 334 109 12 0 0 2 12 78 182 282 382 361 249 0 0 0 0 0 0 0 0 0 0 0 0 0 0 0 1 5 3 5 2 1 3
480 562 940 1052 984 816 612 348 171 36 20 0 0 10 71 133 102 166 258 443 404 187 0 0 0 0 0 0 0 0 0 0 0 5 1 0 3 36 30 13 14 18 6
433 477 905 976 837 622 370 187 60 50 16 0 29 65 100 88 109 151 195 307 418 337 0 0 0 0 0 0 0 0 0 0 0 0 0 0 0 2 1 4 8 6 10
599 340 739 788 578 349 139 69 58 43 47 42 103 133 77 102 255 297 390 412 449 396 39 0 0 0 0 0 0 0 0 0 0 1 0 0 0 0 0 0 1 0 0
951 771 686 477 300 146 107 85 101 87 73 114 182 127 99 151 296 506 602 536 519 395 0 0 0 0 0 0 0 0 0 0 0 1 0 0 0 0 0 2 2 5 5
862 502 320 203 178 163 170 116 126 81 143 192 171 157 159 143 216 473 576 494 372 71 0 0 0 0 0 0 0 0 0 0 0 1 1 0 0 0 0 1 1 3 5
537 190 138 109 39 55 66 35 68 109 168 220 236 182 122 100 121 267 275 173 39 0 0 0 0 0 0 0 0 0 0 0 0 0 0 0 0 0 0 1 5 6 6
215 158 11 0 56 65 114 66 135 147 190 220 197 129 87 46 46 106 77 36 0 0 0 0 0 0 0 0 0 0 0 0 0 0 0 0 7 9 1 1 5 7 4
2 1 1 1 0 43 66 49 132 270 252 161 119 47 25 6 0 7 29 17 0 0 0 0 0 0 0 0 0 0 0 0 0 0 0 0 15 10 8 1 3 5 3
4 3 2 0 6 30 51 3 69 333 216 160 85 41 52 30 68 9 17 0 0 0 0 0 0 0 0 0 0 0 0 0 0 0 0 0 1 16 6 5 1 0 0
4 4 0 0 0 0 10 21 40 168 172 121 83 130 60 94 54 72 1 0 0 0 0 0 0 0 0 0 0 0 0 0 0 0 0 0 0 11 5 4 6 1 0
2 2 2 0 0 5 0 0 21 132 173 139 202 175 194 147 90 80 8 0 0 0 0 0 0 0 0 0 0 0 0 0 0 0 0 0 0 0 15 2 1 1 0
1 1 0 0 3 2 24 25 62 66 41 57 165 201 193 131 108 82 94 47 7 4 0 0 0 0 0 0 0 0 0 0 0 0 0 0 0 0 19 5 2 0 0
4 0 4 15 1 14 8 4 65 69 111 122 209 205 173 162 118 65 94 56 56 29 12 0 0 0 0 0 0 0 0 0 0 0 0 0 0 0 8 3 0 0 0
0 0 0 0 3 7 0 9 13 43 156 211 134 159 253 126 103 67 111 110 81 34 5 0 0 0 0 0 0 0 0 0 0 0 0 0 0 0 0 0 0 0 0
0 1 1 0 5 0 2 6 15 139 102 58 57 233 286 187 141 151 119 76 54 12 0 0 0 0 0 0 0 0 0 0 0 0 0 0 0 0 0 0 0 0 0
0 0 2 1 0 0 17 38 123 19 0 0 51 256 365 469 473 355 216 112 48 0 0 0 0 0 0 0 0 0 0 0 0 0 0 0 0 0 0 0 0 0 0
7 8 1 12 11 30 82 6 4 20 0 39 245 399 491 585 539 466 215 114 29 0 0 0 0 0 0 0 0 0 0 0 0 0 0 0 0 0 0 0 0 0 0
40 49 66 79 77 103 100 14 0 0 18 72 242 398 416 423 366 285 165 65 4 0 0 0 0 0 0 0 0 0 0 0 0 0 0 0 0 0 0 0 0 0 0
112 94 104 90 112 274 208 70 2 0 1 12 143 346 407 342 282 230 120 0 2 0 0 0 0 0 0 0 0 0 0 0 0 0 0 0 0 0 0 0 0 0 0
176 183 210 219 329 348 364 225 36 1 1 29 129 335 372 438 334 148 105 11 0 0 0 0 0 0 0 0 0 0 0 0 0 0 0 0 0 0 0 0 0 0 0
133 200 216 227 238 270 316 316 129 3 0 3 72 235 386 278 89 7 9 1 0 0 0 0 0 0 0 0 0 0 0 0 0 0 0 0 0 0 0 0 0 0 0
360 286 336 257 207 222 359 353 348 121 4 54 187 334 478 270 76 20 0 0 0 0 0 0 0 0 0 0 0 0 0 0 0 0 0 0 0 0 0 0 0 0 0
599 546 389 321 264 260 384 491 514 369 160 20 279 456 457 364 186 6 0 0 0 0 0 0 0 0 0 0 0 0 0 0 1 0 0 0 0 0 0 0 0 1 0

GFSSE_con_mlcape_057.txt.gz
CAPE
175 790 1063 1010 1129 960 753 539 350 228 228 184 93 74 86 223 122 0 0 0 0 0 0 0 0 0 0 0 0 0 0 0 0 0 1 0 0 4 7 8 6 21 30
4 66 826 945 1161 1066 828 604 435 296 259 191 79 111 273 295 5 0 0 0 0 0 0 0 0 0 0 0 0 6 13 10 0 0 3 10 9 7 1 0 0 13 18
0 0 5 773 1051 1114 813 604 433 322 255 174 69 245 440 207 7 0 0 0 0 0 0 0 0 0 0 0 0 0 2 7 17 0 4 3 2 15 23 6 6 5 3
0 46 289 786 979 1152 962 569 464 365 309 183 110 417 538 191 10 1 0 0 0 0 0 0 0 0 0 0 0 0 0 0 0 0 0 0 2 8 7 8 6 7 1
775 1429 1254 1346 993 982 772 555 543 401 315 187 201 623 647 304 26 0 0 0 0 0 0 0 0 0 0 0 0 0 0 0 0 0 0 0 0 4 4 4 6 9 12
942 1484 1248 966 703 514 557 570 425 277 213 244 498 701 609 568 97 29 14 10 0 0 0 0 0 0 0 0 0 0 0 0 0 0 0 0 0 2 1 2 7 6 8
1208 1139 1007 515 255 103 283 491 451 210 241 276 553 721 781 531 376 67 43 12 0 0 0 0 0 0 0 0 0 0 0 0 0 0 0 0 0 2 2 4 4 4 5
1006 832 738 556 548 480 358 129 221 399 300 370 499 685 761 628 503 226 46 7 0 0 0 0 0 0 0 0 0 0 0 0 0 0 0 0 1 2 3 5 3 5 6
836 689 587 463 412 273 129 89 106 387 418 421 513 683 580 573 541 229 37 0 0 0 0 0 0 0 0 0 0 0 0 0 0 0 0 0 0 2 4 2 2 2 4
619 373 202 222 131 40 8 39 66 280 311 229 357 499 483 528 494 237 27 0 0 0 0 0 0 0 0 0 0 0 0 0 0 0 0 0 1 3 4 2 1 3 6
390 217 106 0 0 0 0 0 54 256 181 159 393 379 314 278 234 202 43 12 0 0 0 0 0 0 0 0 0 0 0 0 0 0 0 0 3 5 4 3 1 2 5
215 127 28 1 0 0 0 0 23 93 78 79 142 122 143 113 172 156 78 24 0 0 0 0 0 0 0 0 0 0 0 0 0 0 0 0 1 6 5 2 1 1 1
25 17 2 2 0 0 0 0 0 0 28 17 26 45 75 115 168 120 56 18 0 0 0 0 0 0 0 0 0 0 0 0 0 0 0 0 0 4 4 4 0 0 0
2 1 1 2 0 0 0 0 0 0 2 33 26 66 102 72 70 10 15 1 0 0 0 0 0 0 0 0 0 0 0 0 0 0 0 0 0 4 8 4 2 0 0
2 2 1 0 0 0 0 13 3 11 31 50 101 93 119 27 1 5 7 0 0 0 0 0 0 0 0 0 0 0 0 0 0 0 0 0 0 0 4 1 1 0 0
1 1 0 1 0 0 0 3 0 17 17 39 115 171 161 0 2 19 22 0 0 0 0 0 0 0 0 0 0 0 0 0 0 0 0 0 0 0 0 2 2 1 0
2 2 0 0 0 0 0 0 0 4 0 13 90 134 167 171 150 60 80 26 1 0 0 0 0 0 0 0 0 0 0 0 0 0 0 0 0 0 0 0 0 0 0
1 0 2 0 0 0 0 0 0 0 3 14 56 128 149 130 167 161 168 129 46 3 0 0 0 0 0 0 0 0 0 0 0 0 0 0 0 0 0 0 0 0 0
0 2 4 0 0 0 0 0 0 6 22 53 69 46 58 102 173 78 112 96 159 36 0 0 0 0 0 0 0 0 0 0 0 0 0 0 0 0 0 0 0 0 0
0 0 0 0 0 0 0 0 0 0 12 14 0 4 47 97 126 119 58 160 72 4 0 0 0 0 0 0 0 0 0 0 0 0 0 0 0 0 0 0 0 0 0
0 0 0 0 0 0 0 0 0 0 0 0 0 0 28 89 68 194 180 148 55 3 0 0 0 0 0 0 0 0 0 0 0 0 0 0 0 0 0 0 0 0 0
0 0 0 0 0 0 0 0 0 0 0 0 0 0 0 58 145 241 193 131 62 0 0 0 0 0 0 0 0 0 0 0 0 0 0 0 0 0 0 0 0 0 0
0 0 0 0 0 0 0 0 0 0 0 0 0 0 76 198 191 181 193 145 58 2 0 0 0 0 0 0 0 0 0 0 0 0 0 0 0 0 0 0 0 0 0
0 0 0 0 0 0 0 0 0 0 0 0 0 0 0 159 168 232 235 168 86 43 2 0 0 0 0 0 0 0 0 0 0 0 0 0 0 0 0 0 0 0 0
0 0 0 0 0 0 0 0 0 0 0 0 0 0 0 78 125 214 190 216 110 30 0 0 0 0 0 0 0 0 0 0 0 0 0 0 0 0 0 0 0 0 0
0 0 0 0 0 0 0 0 2 55 0 0 0 0 11 151 178 186 181 145 75 29 5 0 0 0 0 0 0 0 0 0 0 0 0 0 0 0 0 0 0 0 0

GFSSE_con_mlcape_060.txt.gz
CAPE
829 975 773 896 908 595 331 294 223 174 224 222 304 426 284 130 30 1 0 0 0 0 0 0 0 0 0 0 0 0 0 0 5 4 5 11 18 20 16 12 23 28 33
771 820 684 541 947 713 361 288 322 272 313 336 421 338 185 96 40 0 0 0 0 0 0 0 1 3 4 2 0 0 0 0 0 6 15 6 11 12 4 2 7 21 27
404 691 449 242 363 877 597 418 428 359 361 405 414 285 192 87 23 0 0 0 0 0 0 0 0 0 0 12 15 7 10 0 0 3 2 2 3 9 12 8 6 6 11
107 373 439 159 374 586 637 577 620 475 520 574 451 336 201 49 7 2 0 0 0 0 0 0 0 0 0 0 0 0 0 0 0 0 0 0 2 8 9 10 2 8 4
1 1 5 0 0 243 686 716 573 319 520 595 438 341 208 91 55 2 0 0 0 0 0 0 0 0 0 0 0 0 0 0 0 0 0 0 0 4 8 7 7 10 17
332 577 240 4 429 589 565 579 437 408 543 610 458 312 305 192 83 11 0 0 0 0 0 0 0 0 0 0 0 0 0 0 0 0 0 0 0 6 4 6 7 3 9
828 1078 826 475 406 318 330 431 421 335 523 715 646 328 265 147 54 0 0 0 0 0 0 0 0 0 0 0 0 0 0 0 0 0 0 0 2 5 6 6 8 7 8
741 673 637 493 168 51 174 111 239 456 474 721 763 451 204 141 83 0 0 0 0 0 0 0 0 0 0 0 0 0 0 0 0 0 0 0 3 3 3 5 7 6 4
450 496 434 415 266 177 78 8 49 414 411 666 578 488 336 90 40 0 0 0 0 0 0 0 0 0 0 0 0 0 0 0 0 0 0 0 2 2 2 4 6 9 7
465 421 396 354 254 36 3 0 0 111 293 571 562 462 329 98 32 0 0 0 0 0 0 0 0 0 0 0 0 0 0 0 0 0 0 0 1 1 1 2 3 4 4
534 387 298 180 47 0 2 8 9 164 293 406 293 272 293 129 7 0 0 0 0 0 0 0 0 0 0 0 0 0 0 0 0 0 0 0 1 2 1 2 3 4 3
182 142 86 1 0 1 33 14 91 89 163 195 115 154 145 104 3 0 0 0 0 0 0 0 0 0 0 0 0 0 0 0 0 0 0 0 2 3 3 3 3 4 6
52 5 3 2 0 2 11 24 8 5 61 91 55 61 116 106 12 0 0 0 0 0 0 0 0 0 0 0 0 0 0 0 0 0 0 0 1 4 4 3 1 0 6
0 2 2 1 0 0 0 0 1 4 2 9 19 41 63 46 3 0 0 0 0 0 0 0 0 0 0 0 0 0 0 0 0 0 0 0 0 1 2 3 3 0 3
1 2 1 0 0 0 0 0 0 1 0 0 18 24 35 12 0 0 0 0 0 0 0 0 0 0 0 0 0 0 0 0 0 0 0 0 0 0 5 5 2 0 0
1 1 3 2 0 0 0 0 0 0 19 25 27 1 5 0 0 0 0 0 0 0 0 0 0 0 0 0 0 0 0 0 0 0 0 0 0 0 0 1 0 0 0
2 2 2 0 0 0 0 0 0 0 19 18 45 8 0 0 0 0 0 0 0 0 0 0 0 0 0 0 0 0 0 0 0 0 0 0 0 0 0 0 0 0 0
1 0 2 2 0 0 0 0 0 11 3 25 72 83 25 36 3 0 2 1 0 0 0 0 0 0 0 0 0 0 0 0 0 0 0 0 0 0 0 0 0 0 0
1 1 2 0 0 0 0 0 0 4 0 11 15 53 89 114 113 77 32 55 28 3 0 0 0 0 0 0 0 0 0 0 0 0 0 0 0 0 0 0 0 0 0
1 1 0 0 0 0 0 0 0 0 0 0 6 14 68 106 138 108 70 71 73 29 0 0 0 0 0 0 0 0 0 0 0 0 0 0 0 0 0 0 0 0 0
1 0 0 0 0 0 0 0 0 0 0 0 3 0 6 10 42 118 90 64 71 37 0 0 0 0 0 0 0 0 0 0 0 0 0 0 0 0 0 0 0 0 0
0 0 0 0 0 0 0 0 0 0 0 0 5 2 0 21 77 45 20 83 50 27 0 0 0 0 0 0 0 0 0 0 0 0 0 0 0 0 0 0 0 0 0
1 0 0 0 0 0 0 0 0 0 0 0 0 0 0 0 0 17 17 54 57 24 7 0 0 0 0 0 0 0 0 0 0 0 0 0 0 0 0 0 0 0 0
0 0 0 0 0 0 0 0 0 0 0 0 0 0 0 0 0 0 5 62 71 7 0 0 0 0 0 0 0 0 0 0 0 0 0 0 0 0 0 0 0 0 0
0 0 0 0 0 0 0 0 0 0 0 0 0 0 0 0 0 15 70 64 27 18 4 0 0 0 0 0 0 0 0 0 0 0 0 0 0 0 0 0 0 0 0
0 0 0 0 0 0 0 0 0 0 0 0 0 0 0 0 0 0 49 85 48 31 23 9 0 0 0 0 0 0 0 0 0 0 0 0 0 0 0 0 0 0 0

GFSSE_con_mlcape_063.txt.gz
CAPE
914 878 889 676 477 724 1002 640 199 392 552 525 423 382 311 237 216 150 57 8 0 0 0 0 0 1 5 13 4 0 0 2 4 11 25 24 21 10 20 28 27 40 44
1150 901 493 341 176 150 521 1037 746 470 504 565 338 298 207 155 94 47 5 12 5 2 1 3 5 5 1 2 3 1 9 9 8 9 7 6 8 5 4 13 32 38 35
1114 995 170 72 55 18 56 549 914 854 726 578 403 257 178 97 64 27 12 42 39 11 8 10 6 17 7 3 0 0 0 0 3 8 9 2 6 9 7 13 9 26 31
1026 975 296 129 45 27 13 192 820 829 651 535 346 221 129 89 26 11 12 54 56 11 7 5 1 1 4 1 0 0 0 0 0 0 0 1 10 17 16 13 18 20 18
776 744 478 155 23 13 1 61 677 865 480 543 289 177 126 95 24 0 25 48 45 6 0 0 0 0 0 0 0 0 0 0 0 0 0 0 4 11 11 7 9 6 16
441 435 627 322 42 19 54 103 444 567 525 455 274 179 162 107 11 0 0 36 32 0 0 0 0 0 0 0 0 0 0 0 0 0 0 1 2 10 9 5 7 3 6
234 251 188 42 117 7 145 243 216 310 373 379 292 248 227 115 1 0 0 0 0 0 0 0 0 0 0 0 0 0 0 0 0 0 0 0 3 9 10 11 9 9 5
519 490 362 12 4 135 166 7 12 38 269 334 381 321 217 93 3 0 0 0 0 0 0 0 0 0 0 0 0 0 0 0 0 0 0 0 5 7 10 8 6 4 5
615 508 357 150 289 89 15 0 0 2 199 304 327 316 190 20 0 0 0 0 0 0 0 0 0 0 0 0 0 0 0 0 0 0 0 0 4 4 5 4 3 3 3
57 202 262 141 142 17 19 4 0 0 132 264 300 280 116 0 0 0 0 0 0 0 0 0 0 0 0 0 0 0 0 0 0 0 0 0 1 2 2 2 2 3 3
264 174 254 112 41 2 0 0 0 4 85 198 183 154 103 4 0 0 0 0 0 0 0 0 0 0 0 0 0 0 0 0 0 0 0 0 2 1 2 2 2 2 4
340 248 164 44 12 2 1 0 0 3 36 64 115 128 100 1 0 0 0 0 0 0 0 0 0 0 0 0 0 0 0 0 0 0 0 1 2 1 1 2 5 4 1
45 59 18 7 3 3 3 4 0 0 0 8 43 110 22 0 0 0 0 0 0 0 0 0 0 0 0 0 0 0 0 0 0 0 0 0 1 1 1 0 1 1 1
1 2 1 1 3 4 6 1 7 32 63 62 73 90 26 1 0 0 0 0 0 0 0 0 0 0 0 0 0 0 0 0 0 0 0 0 0 1 2 0 0 3 4
1 1 0 2 2 2 3 6 9 8 22 60 61 66 20 0 0 0 0 0 0 0 0 0 0 0 0 0 0 0 0 0 0 0 0 0 0 0 3 4 2 0 1
1 1 0 1 0 0 0 0 0 0 21 39 44 60 4 0 0 0 0 0 0 0 0 0 0 0 0 0 0 0 0 0 0 0 0 0 0 0 0 3 3 0 0
1 1 0 0 0 0 0 9 0 2 9 39 37 49 4 0 0 0 0 0 0 0 0 0 0 0 0 0 0 0 0 0 0 0 0 0 0 0 0 0 0 0 0
0 2 2 3 1 0 0 0 0 22 31 47 68 53 9 0 0 0 0 0 0 0 0 0 0 0 0 0 0 0 0 0 0 0 0 0 0 0 0 0 0 0 0
0 1 2 1 0 0 0 1 6 13 29 50 68 50 26 12 3 0 0 0 0 0 0 0 0 0 0 0 0 0 0 0 0 0 0 0 0 0 0 0 0 0 0
1 1 1 2 1 0 0 1 8 7 10 30 52 43 46 31 20 9 19 17 0 0 0 0 0 0 0 0 0 0 0 0 0 0 0 0 0 0 0 0 0 0 0
0 1 0 1 0 0 0 0 10 15 9 7 27 60 98 106 124 119 110 63 73 77 45 2 0 0 0 0 0 0 0 0 0 0 0 0 0 0 0 0 0 0 0
0 1 1 0 0 0 0 0 0 0 0 1 6 21 21 52 70 110 88 70 48 47 14 0 0 0 0 0 0 0 0 0 0 0 0 0 0 0 0 0 0 0 0
0 1 1 0 0 0 0 0 0 0 0 0 0 2 4 14 23 31 20 45 14 15 30 7 0 0 0 0 0 0 0 0 0 0 0 0 0 0 0 0 0 0 0
0 0 1 0 0 0 0 0 0 0 0 0 0 0 0 12 5 0 2 26 14 0 6 2 0 0 0 0 0 0 0 0 0 0 0 0 0 0 0 0 0 0 0
0 0 0 0 0 0 0 0 0 0 0 0 0 0 0 0 0 0 0 0 0 0 11 9 0 0 0 0 0 0 0 0 0 0 0 0 0 0 0 0 0 0 0
0 0 0 0 0 0 0 0 0 0 0 0 0 0 0 0 0 0 0 0 0 1 17 21 0 0 0 0 0 0 0 0 0 0 0 0 0 0 0 0 0 0 0

GFSSE_con_mlcape_069.txt.gz
CAPE
834 1173 826 378 898 1097 1410 1191 981 940 742 698 619 340 383 535 516 565 571 447 376 249 106 137 179 62 48 40 46 6 6 5 17 29 35 39 44 40 33 26 29 41 30
1054 1094 1060 1033 1049 1309 1456 1290 1122 944 838 821 672 523 496 561 574 626 506 381 286 178 57 60 80 27 18 14 0 0 0 0 9 22 32 44 40 33 15 9 16 12 10
1302 1371 1194 931 1099 1313 1507 1420 1251 1147 983 699 553 631 586 617 500 303 192 153 90 28 38 42 37 14 9 1 0 0 0 2 1 5 6 7 34 12 8 1 2 4 2
1366 1317 1232 1027 1211 1445 1486 1469 1348 1277 1067 724 758 696 566 455 309 203 127 19 3 0 9 13 17 18 9 0 0 0 0 0 0 0 1 7 14 9 6 1 0 0 2
1338 1182 1015 598 499 1393 1442 1364 1402 1292 1058 834 694 607 381 383 287 177 100 29 6 3 5 8 7 13 10 0 0 0 0 0 0 1 15 15 12 10 6 3 10 4 7
1021 581 985 898 900 1012 1477 1351 1235 1087 917 735 569 357 300 367 246 136 73 7 28 12 22 13 8 2 0 0 0 0 0 0 0 0 6 6 8 7 8 13 3 8 6
998 818 804 757 745 704 939 1214 1108 872 637 488 308 205 320 235 140 96 127 161 100 190 100 4 2 0 0 0 0 0 0 0 0 1 1 4 8 12 9 5 6 5 5
746 769 746 572 612 725 659 519 483 645 593 422 287 217 258 143 98 86 15 2 45 63 81 0 0 0 0 0 0 0 0 0 0 0 1 3 8 6 6 6 5 5 5
514 553 611 631 648 511 540 337 236 365 474 351 206 244 152 93 86 35 0 0 89 69 0 0 0 0 0 0 0 0 0 0 0 0 0 0 4 5 5 4 3 3 2
553 595 410 570 405 389 372 199 54 138 195 125 205 190 130 125 81 0 0 0 98 49 0 0 0 0 0 0 0 0 0 0 0 0 0 1 4 4 5 3 3 1 1
104 215 451 391 151 123 151 144 30 8 20 34 129 184 141 164 27 0 0 16 48 0 0 0 0 0 0 0 0 0 0 0 0 0 0 3 4 4 5 3 3 1 1
225 241 206 109 25 66 8 1 0 1 0 5 81 121 133 60 1 0 0 0 5 2 0 0 0 0 0 0 0 0 0 0 0 0 0 4 6 5 5 3 3 1 1
155 177 70 69 40 29 52 30 19 7 0 3 35 122 57 14 0 0 0 0 10 0 0 0 0 0 0 0 0 0 0 0 0 0 0 5 6 4 5 3 2 3 1
131 83 82 23 33 8 18 3 21 9 32 43 56 116 36 0 0 0 0 0 0 4 11 0 0 0 0 0 0 0 0 0 0 0 0 1 2 4 4 2 1 1 0
48 67 1 8 1 1 1 0 3 0 0 26 97 62 0 0 0 0 0 0 0 0 0 0 0 0 0 0 0 0 0 0 0 0 1 0 2 1 3 5 3 2 1
5 9 1 3 3 3 2 1 2 3 32 57 82 38 3 0 0 0 0 0 0 0 0 0 0 0 0 0 0 0 0 0 0 0 1 1 0 1 1 3 4 6 2
1 1 3 3 2 1 0 0 0 3 14 37 61 34 0 0 0 0 0 0 0 0 0 0 0 0 0 0 0 0 0 0 0 0 0 0 0 0 1 1 0 1 0
2 4 4 2 2 4 0 0 4 17 16 45 52 52 16 6 0 0 0 0 0 0 0 0 0 0 0 0 0 0 0 0 0 0 0 0 0 0 0 0 0 0 0
0 2 2 1 1 3 1 3 2 32 21 17 15 13 17 0 0 0 0 0 0 0 0 0 0 0 0 0 0 0 0 0 0 0 0 0 0 0 0 0 0 0 0
0 0 1 0 1 0 1 1 0 8 26 12 7 14 19 9 1 0 0 0 0 1 0 0 0 0 0 0 0 0 0 0 0 0 0 0 0 0 0 0 0 1 0
1 1 2 0 1 0 0 3 0 0 0 16 4 17 21 12 1 0 0 0 0 0 0 4 2 0 0 0 0 0 0 0 0 0 0 0 0 0 0 0 0 0 1
2 3 2 1 1 1 1 0 0 0 0 0 0 0 1 22 10 0 0 0 0 0 6 4 8 16 4 0 0 0 0 0 0 0 0 0 0 0 0 0 0 0 0
1 2 2 2 1 1 1 0 1 0 0 0 0 0 0 21 21 17 1 7 7 7 13 30 23 21 84 2 0 16 5 1 0 0 0 0 0 0 0 0 0 0 0
0 0 3 2 1 3 0 0 0 0 0 0 0 0 0 15 30 47 44 53 64 103 123 63 52 84 89 84 0 0 0 0 0 0 0 0 0 0 0 0 0 0 0
0 0 3 3 2 0 1 0 0 1 0 0 0 0 0 1 27 57 72 58 57 50 72 82 81 45 54 68 9 0 0 0 0 0 1 0 0 0 0 0 0 0 0
0 0 3 0 0 0 0 0 0 0 0 0 0 0 0 2 12 21 34 43 55 45 43 74 64 57 26 10 9 0 0 0 0 0 0 0 0 0 0 0 0 0 0

GFSSE_con_mlcape_072.txt.gz
CAPE
1015 1277 921 1117 1543 1392 1155 952 931 860 896 895 786 480 416 561 661 344 216 354 427 321 281 299 191 182 150 109 50 42 24 22 19 24 24 32 31 39 40 20 16 22 10
1182 1323 986 1093 1605 1813 1494 1183 968 1112 1077 1003 767 649 715 733 664 630 560 437 325 271 364 166 130 97 56 20 0 0 0 0 0 3 18 34 41 42 23 9 12 14 12
1218 1410 1183 1084 1480 1606 1553 1339 1221 1227 1200 992 783 750 807 845 826 734 491 279 186 234 255 70 38 23 6 0 0 0 0 0 0 19 23 31 31 18 8 2 2 4 7
1363 1294 1281 899 957 1600 1659 1530 1457 1434 1291 1009 882 961 941 877 728 574 341 181 124 170 97 21 12 12 4 0 0 0 0 0 0 0 13 23 13 5 3 3 4 2 3
1503 1206 1069 690 481 618 1366 1673 1660 1494 1280 1099 1037 1063 915 751 548 294 137 79 82 101 18 7 10 14 0 0 0 0 0 0 0 2 3 6 4 6 3 0 0 3 4
1343 1302 918 393 222 307 528 1451 1641 1439 1297 1136 1072 971 863 668 429 140 46 5 9 0 10 14 20 9 0 0 0 0 0 0 0 2 0 1 0 10 1 0 4 4 3
1088 1036 125 689 413 458 444 1185 1484 1360 1208 1085 963 874 763 577 333 136 53 25 36 3 11 13 18 1 0 0 0 0 0 0 0 0 0 0 3 7 5 2 3 3 3
1018 1013 1221 712 602 768 565 1405 1243 1185 1076 985 851 797 705 453 208 115 103 115 59 0 7 3 1 0 0 0 0 0 0 0 0 0 0 0 4 7 5 4 4 3 3
523 708 1087 733 681 614 729 511 482 995 908 774 719 489 483 285 219 193 180 138 129 0 0 0 0 0 0 0 0 0 0 0 0 0 0 0 7 9 6 7 3 3 4
478 613 621 743 595 454 552 311 385 471 593 587 525 354 222 224 128 76 112 155 166 0 0 0 0 0 0 0 0 0 0 0 0 0 0 1 8 9 9 6 3 3 3
304 609 464 596 672 726 422 231 83 127 223 144 173 166 147 172 112 69 53 183 94 0 0 0 0 0 0 0 0 0 0 0 0 0 0 5 10 9 6 5 4 4 4
364 458 562 634 621 257 295 140 66 105 170 35 34 54 109 172 115 0 118 171 73 0 0 0 0 0 0 0 0 0 0 0 0 0 0 6 9 9 6 4 4 4 4
400 392 320 110 82 58 81 36 49 9 0 26 60 37 123 151 25 29 172 158 16 0 0 0 0 0 0 0 0 0 0 0 0 0 1 3 5 5 5 3 3 3 1
171 198 160 115 41 47 2 3 0 0 4 1 7 48 162 75 16 58 114 70 0 0 0 0 0 0 0 0 0 0 0 0 0 0 1 3 4 5 5 5 5 2 2
158 169 117 86 42 0 19 16 1 2 0 11 48 65 128 33 8 9 91 117 38 71 15 0 0 0 0 0 0 0 0 0 0 0 0 1 3 8 5 5 4 4 2
40 19 19 3 19 1 10 11 8 4 2 10 55 85 123 44 5 0 23 51 89 131 45 0 0 0 0 0 0 0 0 0 0 0 0 0 0 1 9 9 6 5 3
1 4 4 2 1 0 1 1 1 15 34 19 39 59 74 50 11 18 12 11 1 9 0 0 0 0 0 0 0 0 0 0 0 0 1 1 0 0 0 10 9 7 3
2 2 5 3 2 3 2 2 4 9 17 25 35 39 19 22 22 3 4 0 0 3 0 0 0 0 0 0 0 0 0 0 0 0 0 0 4 2 1 0 0 0 0
7 18 3 4 2 3 3 2 4 1 15 58 37 14 6 15 7 5 12 1 3 0 0 0 0 0 0 0 0 0 0 0 0 0 0 0 0 0 6 0 0 0 0
7 8 2 3 4 3 3 4 5 13 18 42 41 13 2 25 16 7 0 19 21 3 1 0 0 0 0 0 0 0 0 0 0 0 0 0 0 0 0 2 1 2 0
2 6 4 1 0 3 3 2 2 2 13 20 24 43 39 40 18 0 0 26 62 38 48 50 32 12 1 0 0 0 0 0 0 0 0 0 0 0 0 0 0 9 1
1 6 7 1 1 2 2 3 3 4 19 18 16 6 12 39 10 25 4 32 68 102 136 112 77 51 95 10 44 101 70 17 0 0 0 0 0 0 0 0 0 0 0
0 4 6 3 3 3 11 14 5 0 1 1 2 4 4 16 31 15 0 0 4 78 98 112 89 128 169 54 61 120 164 104 118 2 0 0 0 0 0 0 0 0 0
0 1 3 0 5 3 2 1 3 4 1 3 1 1 8 7 28 27 0 0 1 36 85 135 130 177 188 114 69 78 123 124 80 45 0 0 0 0 0 0 0 0 0
0 0 2 2 9 3 3 2 0 5 0 0 0 0 0 8 29 23 3 1 0 14 34 70 89 153 209 97 150 113 51 27 3 16 19 21 0 0 0 0 0 0 0
0 0 1 1 2 5 5 4 2 1 1 2 1 2 2 1 7 12 17 9 8 30 70 47 76 122 121 103 56 138 155 118 76 27 22 36 42 0 0 0 0 0 0

GFSSE_con_mlcape_075.txt.gz
CAPE
953 1617 795 983 1459 1555 1220 1120 875 763 730 774 578 524 701 787 609 430 242 277 282 196 188 354 401 307 282 201 128 26 50 76 63 44 30 59 74 31 26 23 23 24 18
1214 1844 862 1043 1413 1738 1317 1254 1128 995 854 842 707 678 737 746 641 439 425 501 538 506 410 335 280 229 98 80 38 13 25 14 24 30 21 42 20 10 1 0 10 13 8
1460 1712 1206 998 1321 1476 1301 1226 1213 1270 1131 889 758 786 833 688 692 863 770 548 561 411 284 233 191 71 25 1 0 2 3 0 27 37 19 15 13 5 1 5 10 12 8
1391 1486 1389 937 947 1225 1169 1280 1273 1356 1290 1081 919 895 934 853 887 806 610 515 372 351 257 149 78 4 2 0 0 0 0 0 0 0 17 11 13 11 8 5 5 4 4
1686 1519 1340 844 592 358 106 82 894 1300 1318 1132 1010 971 1051 928 932 664 530 415 363 209 119 96 10 8 0 0 0 0 0 0 3 18 12 16 13 6 4 4 2 2 2
1736 1445 974 461 227 57 0 0 265 963 1240 1147 1108 1105 1098 949 743 498 325 316 294 113 17 29 4 2 0 0 0 0 0 0 0 8 0 4 13 10 2 0 1 3 4
1680 1554 1117 547 230 244 42 18 0 719 1148 1175 1215 1149 1090 845 516 313 224 200 105 27 7 7 5 0 0 0 0 0 0 0 2 0 0 3 7 7 2 2 4 5 5
1541 1681 679 437 286 191 109 9 2 421 749 1031 1069 1070 950 575 258 116 85 40 26 11 13 2 3 0 0 0 0 0 0 0 0 0 1 2 6 3 4 4 3 4 4
1137 1423 1362 1140 414 193 133 25 0 239 587 1034 1088 948 784 442 125 55 88 106 33 0 0 2 0 0 0 0 0 0 0 0 0 0 0 2 6 5 4 4 5 5 5
1003 921 1181 1061 774 611 352 228 204 195 270 481 728 780 562 202 223 195 207 115 16 0 0 0 0 0 0 0 0 0 0 0 1 0 0 2 6 6 5 3 7 7 7
896 701 543 1012 853 669 491 354 170 142 217 233 384 294 99 123 168 176 238 125 25 0 0 0 0 0 0 0 0 0 0 4 2 0 0 3 5 8 7 6 6 5 7
640 809 825 797 706 633 367 147 58 224 270 189 138 20 13 40 204 222 254 113 0 0 0 0 0 0 0 0 0 0 1 4 4 0 1 3 5 7 7 7 6 7 7
586 588 663 749 645 512 302 219 133 123 146 114 5 0 0 37 172 151 221 80 0 0 0 0 0 0 0 0 0 0 0 0 7 0 0 5 5 8 6 6 4 3 2
603 508 527 245 108 21 1 1 69 92 55 2 0 0 40 32 125 222 133 40 0 0 0 0 0 0 0 0 0 0 0 4 4 0 1 3 4 9 8 6 3 3 1
460 209 409 202 50 16 0 0 1 2 0 4 9 12 41 36 93 165 123 32 0 0 0 0 2 0 0 0 0 1 2 6 1 0 1 3 1 5 3 6 5 3 2
221 247 140 239 23 8 1 0 0 0 0 9 30 24 45 50 109 157 132 98 22 9 0 0 1 0 0 0 0 1 3 3 7 1 0 1 0 4 4 3 5 4 1
43 9 25 7 29 1 4 1 1 0 0 0 0 21 27 71 143 154 183 199 124 109 37 8 0 0 0 0 0 0 0 1 4 6 0 0 0 0 3 3 4 2 1
19 8 2 6 2 2 4 1 2 1 0 6 32 37 52 109 95 138 150 189 180 148 68 6 0 0 0 0 0 0 0 0 0 4 4 0 0 0 0 2 4 1 0
11 14 6 2 2 2 2 3 3 2 4 5 34 39 71 97 96 78 54 62 92 73 41 1 0 0 0 0 0 0 0 0 0 0 0 2 3 0 0 0 0 1 0
0 17 6 2 3 2 2 3 5 10 11 5 19 27 54 94 90 61 52 58 34 35 2 0 3 0 0 0 0 0 0 0 0 0 0 0 0 0 2 5 0 0 0
0 2 14 1 5 3 2 3 3 3 1 0 3 9 23 46 63 60 58 65 53 9 0 19 12 4 1 0 0 0 0 0 0 0 0 0 0 0 0 1 4 0 0
0 2 10 6 7 3 2 3 2 2 1 6 10 5 2 39 25 19 31 57 68 24 53 64 74 54 21 0 0 13 11 2 0 0 0 0 0 0 0 0 0 1 17
0 0 7 7 2 4 8 5 5 5 11 18 35 15 0 21 40 10 10 44 82 101 117 122 133 122 93 53 59 83 49 75 119 41 0 0 0 0 0 0 0 0 0
0 0 5 8 4 3 8 2 0 0 3 4 2 1 7 8 30 35 34 37 90 103 135 184 190 165 54 30 41 100 156 208 27 56 61 11 0 0 0 0 0 0 0
2 0 0 1 14 2 8 6 1 2 1 2 3 6 2 0 20 51 18 1 8 31 64 147 136 121 120 36 25 86 117 114 139 24 25 45 7 0 0 0 0 0 0
21 0 0 2 9 8 1 16 6 14 3 3 2 1 2 0 1 13 3 4 0 0 2 26 48 25 33 62 34 92 23 61 96 104 72 73 56 10 0 0 0 0 0

GFSSE_con_mlcape_078.txt.gz
CAPE
1571 1181 876 1023 1446 1108 1085 1052 1037 990 739 503 415 409 533 448 351 142 134 119 262 245 186 307 439 428 369 270 212 117 82 80 83 110 105 108 113 65 15 4 4 8 37
1718 1389 897 906 1517 1484 1089 1034 1030 1036 947 710 650 567 706 581 398 291 299 323 264 409 527 462 352 269 262 153 100 51 26 4 46 81 84 117 74 28 15 7 3 8 13
1764 1585 1031 886 1214 1683 1336 1110 1026 1084 1147 954 859 818 710 688 529 593 600 652 739 561 497 346 239 96 120 74 32 11 0 0 19 24 1 8 18 15 8 3 5 9 10
1285 1686 1408 701 1093 1383 1346 547 759 855 1060 1054 950 919 732 672 681 768 759 613 491 481 381 296 169 32 16 4 0 0 0 21 0 0 5 9 12 12 12 11 11 8 7
1499 1584 1397 774 722 773 166 41 77 225 1072 1119 1057 1041 761 772 795 797 703 622 509 522 428 181 30 2 0 0 0 1 3 2 3 0 1 3 8 9 7 4 3 4 6
1408 1534 1091 761 503 491 278 192 1 0 2 768 814 1120 1049 937 876 711 548 451 437 516 310 65 5 0 0 0 0 7 0 22 4 0 1 3 3 9 3 6 8 5 7
1367 1540 999 588 390 293 274 246 5 0 7 302 838 1194 942 969 812 642 464 321 402 335 70 8 0 0 0 0 0 0 0 0 0 0 0 0 2 8 6 7 7 6 4
1263 1473 1536 585 270 283 197 79 1 0 0 88 611 977 1094 902 614 479 354 295 148 44 1 1 0 0 0 0 0 0 0 0 0 0 0 1 8 7 7 6 4 3 3
1278 1218 1392 821 464 272 176 150 13 5 0 42 723 1064 902 691 500 409 313 155 49 0 0 0 0 0 0 0 0 0 0 0 0 0 0 4 8 6 8 5 5 3 4
934 843 1355 1472 997 460 247 79 11 27 0 15 395 768 572 484 360 307 121 49 0 0 0 0 0 0 0 0 0 0 0 0 0 0 0 2 7 10 7 5 5 6 6
656 733 810 1151 1020 686 574 260 100 2 0 88 363 408 326 331 285 157 66 1 0 0 0 0 0 0 0 0 0 0 0 1 0 0 0 7 10 10 8 5 6 5 5
681 676 592 704 804 515 379 256 146 44 130 72 109 176 225 144 110 63 131 35 0 0 0 0 0 0 0 0 0 0 0 9 0 0 0 6 9 8 5 5 5 5 4
611 780 809 663 582 383 200 139 43 147 105 67 113 77 54 4 16 73 111 28 2 0 0 0 0 0 0 0 0 0 0 2 0 0 3 6 9 5 3 4 5 3 2
680 559 442 524 282 133 56 117 116 62 159 62 5 14 0 0 8 78 65 7 0 0 0 0 0 0 0 0 0 0 0 1 0 0 4 1 5 5 5 3 4 2 0
680 417 440 236 35 0 0 0 46 70 97 36 12 5 0 0 6 13 39 0 0 0 0 0 0 0 0 0 0 0 5 1 0 0 0 0 1 5 5 3 1 0 0
349 260 296 181 42 2 3 0 0 0 27 2 2 15 0 2 18 0 54 0 1 0 0 0 0 0 0 0 0 0 9 6 0 0 0 0 0 3 2 2 3 1 0
181 302 121 213 33 24 4 2 1 0 0 3 0 1 1 13 9 48 50 6 19 2 0 0 0 0 0 0 0 0 0 10 0 0 0 0 0 0 0 1 1 1 0
118 19 83 11 45 2 6 0 0 1 1 1 5 4 13 12 26 91 89 69 101 21 0 0 0 0 0 0 0 0 0 3 8 0 0 0 0 0 0 0 0 0 0
62 0 3 2 1 5 5 1 0 0 0 1 1 0 0 23 32 72 133 169 152 84 67 2 0 0 0 0 0 0 0 0 0 2 0 0 0 0 0 0 0 0 0
33 13 4 3 2 1 2 2 2 0 1 1 0 0 0 0 2 38 51 47 70 93 52 0 3 0 0 0 0 0 0 0 0 0 2 0 0 0 0 0 0 0 0
6 10 0 0 2 3 1 2 2 2 1 7 5 3 2 0 19 49 51 42 43 21 14 0 0 0 0 0 0 0 0 0 0 0 0 0 0 2 0 0 0 0 0
0 0 3 3 1 2 2 2 2 2 3 2 3 0 0 13 27 26 41 42 48 40 5 14 3 10 4 1 0 0 0 0 0 0 0 0 0 0 0 0 0 0 0
0 0 1 4 4 3 3 7 3 3 5 7 8 3 3 13 43 39 56 53 46 34 35 13 22 25 22 1 0 1 24 3 8 0 0 0 0 0 0 0 0 0 0
0 0 0 1 4 1 5 2 3 1 2 2 0 2 0 0 14 21 29 66 54 50 64 68 95 127 99 20 0 2 40 95 30 30 9 0 0 0 0 0 0 0 0
11 0 0 0 1 6 5 5 5 3 1 0 4 2 0 0 4 15 3 23 30 63 61 94 127 141 114 68 23 26 22 21 28 0 0 36 14 0 0 0 0 0 0
39 0 0 0 3 2 3 3 3 6 3 2 2 1 0 0 0 3 9 3 30 61 84 123 128 120 90 58 16 28 5 24 7 5 3 9 44 24 6 0 0 0 0

GFSSE_con_mlcape_084.txt.gz
CAPE
989 1266 1174 1180 1185 977 820 684 752 840 872 711 689 742 908 899 820 845 828 775 848 794 652 548 518 652 728 660 506 429 379 356 298 199 131 181 101 98 97 59 46 44 71
1156 1352 1247 1201 1261 1222 1048 868 790 927 966 825 791 774 797 729 714 770 778 852 970 903 789 671 556 591 557 484 343 274 257 188 143 60 95 103 82 81 65 21 5 11 15
1332 1290 1367 1247 1266 1329 1230 1105 934 901 918 935 849 856 790 882 759 723 698 895 962 930 763 540 518 523 452 285 205 140 96 46 48 30 22 16 50 64 41 16 14 14 16
1368 1247 1432 1421 1290 1308 1276 1240 1230 1140 1139 1041 849 931 824 743 675 567 617 803 852 789 569 468 471 417 356 167 61 27 16 7 0 3 3 7 22 18 13 11 15 17 9
1394 1178 1181 1519 1492 1392 1336 1319 1316 1224 1117 1051 960 830 859 885 602 846 827 801 790 450 250 371 329 338 167 58 21 1 0 0 0 0 2 10 16 23 16 12 10 8 4
1417 1217 1133 1240 1641 1524 1229 1358 1269 941 683 294 84 12 54 508 1059 1074 937 843 651 426 415 366 318 154 135 17 0 0 0 0 0 0 4 8 10 15 3 2 4 8 6
1360 1167 1099 1147 1210 1246 1070 1032 854 665 393 117 9 0 35 163 652 958 778 739 635 450 362 257 227 118 52 0 0 0 0 0 0 0 1 6 14 13 8 4 6 3 2
1279 1030 923 892 832 782 758 664 682 473 230 60 5 0 51 78 381 606 673 493 444 353 309 248 87 39 0 0 0 0 0 0 0 0 1 2 14 11 3 4 4 6 7
1149 1003 760 666 614 520 270 62 104 71 95 43 2 7 68 10 277 348 405 437 371 267 194 47 3 1 0 0 0 0 0 0 0 0 0 2 3 5 8 9 12 11 10
732 886 759 540 479 320 304 164 36 24 0 8 0 0 133 51 164 321 396 406 264 109 34 12 0 0 0 0 0 0 0 0 0 0 0 6 4 10 8 11 10 11 10
337 459 796 629 493 272 85 55 2 3 8 0 0 4 15 0 112 173 291 282 155 13 8 0 0 0 0 0 0 0 0 0 0 0 0 7 10 11 9 9 9 2 6
310 309 419 776 716 452 159 21 1 8 7 6 0 0 20 128 104 207 202 163 69 0 0 0 0 0 0 0 0 0 0 0 0 0 2 9 13 13 8 7 6 7 5
331 397 418 683 675 614 420 44 6 14 0 0 5 1 86 114 141 149 86 42 3 0 0 0 0 0 0 0 0 0 0 0 0 0 3 5 8 8 6 5 5 5 6
426 500 448 636 423 394 387 146 12 8 0 0 97 129 98 96 87 40 5 4 0 0 0 0 0 0 0 0 0 0 0 0 0 0 0 3 2 4 3 3 2 5 3
461 478 478 464 420 258 138 62 53 1 0 9 51 86 80 52 40 8 5 0 0 0 0 0 0 0 0 0 0 0 0 0 0 0 0 0 0 2 2 1 3 5 3
374 390 351 299 102 57 15 1 2 2 0 29 50 59 31 18 2 2 2 0 0 0 0 0 0 0 0 0 0 0 0 0 0 0 0 0 0 0 2 1 3 3 3
263 232 183 84 0 0 0 0 0 12 16 25 74 62 32 11 1 0 0 0 0 0 0 0 0 0 0 0 0 0 0 0 0 0 0 0 0 0 0 2 3 2 1
218 206 82 20 0 0 0 0 0 1 5 18 10 7 21 11 0 0 0 0 0 0 0 0 0 0 0 0 0 0 0 0 0 0 0 0 0 0 0 0 0 2 2
175 91 49 3 0 0 0 0 1 2 3 2 4 1 6 13 0 0 0 0 0 0 0 0 0 0 0 0 0 0 0 0 0 0 0 0 0 0 0 0 0 0 0
63 23 13 0 1 0 0 1 1 0 0 2 2 2 4 2 0 0 0 0 0 0 0 0 0 0 0 0 0 0 0 0 0 0 0 0 0 0 0 0 0 0 0
45 3 0 0 1 0 0 0 2 3 1 1 2 2 2 7 3 0 0 0 0 0 0 2 0 0 0 0 0 0 0 0 0 0 0 0 0 0 0 0 0 0 0
25 3 0 0 2 4 0 0 0 2 2 1 1 1 0 0 0 1 0 0 0 0 2 9 5 0 0 1 0 0 0 0 0 0 0 0 0 0 0 0 0 0 0
11 0 0 0 1 1 1 3 1 2 1 0 1 0 0 0 0 1 0 6 12 12 2 9 5 0 2 0 1 0 0 0 0 0 0 0 0 0 0 0 0 0 0
7 0 0 0 2 2 2 2 0 1 2 2 1 1 0 0 0 0 2 1 10 20 25 15 3 2 2 0 0 2 0 0 0 0 0 0 0 0 0 0 0 0 0
0 0 0 0 0 0 6 1 0 2 1 1 0 0 0 0 0 0 1 3 7 41 30 11 0 0 0 0 0 3 9 23 1 0 0 0 0 0 0 0 0 0 0
0 0 0 0 0 0 4 2 1 2 1 0 0 0 0 0 0 0 0 0 1 23 26 0 2 5 10 2 1 0 4 15 21 11 0 2 0 0 0 0 0 0 0

GFSSE_con_mlcape_087.txt.gz
CAPE
883 1068 1070 1190 1187 1054 945 878 630 847 1060 1228 1266 1220 1092 1010 1017 965 816 782 878 861 713 643 565 552 657 723 516 490 471 371 300 238 265 309 251 209 184 146 122 173 188
759 1227 1109 1202 1163 1122 1066 1040 883 759 1184 1341 1399 1315 1226 1075 1063 979 973 1011 922 865 757 800 769 693 786 590 460 424 325 241 199 206 181 192 132 109 100 100 64 81 90
991 1262 1185 1304 1318 1149 1112 1150 1232 982 991 1277 1440 1351 1246 1192 1147 1027 1098 1097 1055 841 779 811 741 724 621 481 398 314 196 175 151 103 53 19 49 98 97 45 24 42 53
1166 1253 1269 1328 1417 1338 1232 1180 1315 1296 1063 984 1125 1222 867 691 781 740 897 1121 903 835 866 858 810 684 497 372 247 141 76 41 24 12 6 18 66 84 72 43 33 22 11
1265 1305 1363 1374 1435 1400 1364 1295 1312 1309 1167 1136 1086 978 668 508 519 640 928 995 992 781 390 766 788 514 317 198 94 30 5 0 0 0 0 6 17 26 16 12 12 0 4
1285 1212 1453 1404 1407 1440 1464 1385 1303 1336 897 685 709 616 430 327 344 598 723 659 656 437 394 727 503 350 142 47 13 1 0 0 0 0 1 8 7 13 7 4 11 9 8
1206 1076 1290 1580 1533 1514 1497 1305 1319 715 436 108 45 42 32 81 87 149 275 400 515 449 534 480 351 157 50 8 0 0 0 0 0 0 0 3 7 11 3 8 1 2 4
1140 1040 1161 1381 1530 1489 1455 1404 1041 561 222 26 4 12 0 0 0 21 164 314 470 424 494 341 248 43 19 3 0 0 0 0 0 0 1 6 18 14 5 8 3 3 3
1141 965 964 1047 1243 1302 1220 1076 763 636 228 54 61 22 10 21 20 3 144 276 354 334 308 308 178 10 2 0 0 0 0 0 0 0 0 6 17 13 2 3 8 4 7
1040 829 753 709 693 705 662 670 667 334 255 172 103 44 94 56 0 1 75 151 218 337 282 225 33 0 0 0 0 0 0 0 0 0 0 2 7 7 11 9 8 4 4
779 750 607 599 457 449 269 94 69 40 27 43 63 80 107 19 34 4 42 79 177 231 226 116 5 0 0 0 0 0 0 0 0 0 0 6 9 9 9 9 6 2 3
193 380 558 517 367 345 294 177 53 7 1 11 41 93 127 37 149 35 16 72 117 145 107 31 0 0 0 0 0 0 0 0 0 0 0 5 10 5 10 7 3 2 3
172 129 372 629 434 333 189 35 0 0 0 5 24 30 79 35 143 98 104 123 92 59 30 1 0 0 0 0 0 0 0 0 0 0 2 7 10 6 5 5 2 2 2
160 128 230 511 478 380 158 0 0 0 0 0 15 36 44 58 32 74 111 80 41 0 0 0 0 0 0 0 0 0 0 0 0 0 2 6 6 11 14 11 10 8 4
234 196 232 387 425 374 366 103 2 0 0 0 26 24 37 45 39 110 51 19 3 3 0 0 0 0 0 0 0 0 0 0 0 0 0 4 2 9 10 10 9 7 6
261 259 207 338 317 269 244 92 11 1 0 0 44 44 62 85 72 66 2 1 0 0 0 0 0 0 0 0 0 0 0 0 0 0 0 0 1 8 7 10 9 6 4
253 247 183 204 157 155 85 23 19 4 1 0 27 61 77 85 35 21 1 0 0 0 0 0 0 0 0 0 0 0 0 0 0 0 0 0 1 5 5 7 7 4 2
222 213 96 86 29 1 10 0 2 6 3 11 29 66 69 17 16 3 0 0 0 0 0 0 0 0 0 0 0 0 0 0 0 0 0 0 0 0 3 4 1 3 3
178 107 46 17 0 0 0 0 1 0 3 5 28 51 38 3 0 0 0 0 0 0 0 0 0 0 0 0 0 0 0 0 0 0 0 0 0 0 0 0 1 0 0
110 38 21 0 0 0 0 0 0 3 2 16 6 3 22 6 0 0 0 0 0 0 0 0 0 0 0 1 0 0 0 0 0 0 0 0 0 0 0 0 0 0 0
89 50 9 0 0 0 0 0 4 0 5 3 2 1 2 4 0 0 0 0 0 0 0 0 0 0 0 0 0 0 0 0 0 0 0 0 0 0 0 0 0 0 0
82 53 2 0 0 0 0 0 0 0 2 3 1 2 2 2 0 0 0 0 0 0 0 0 0 0 0 0 1 0 0 0 0 0 0 0 0 0 0 0 0 0 0
46 45 7 0 0 0 0 1 0 1 1 0 0 1 2 2 1 0 0 0 0 0 0 1 0 0 0 0 0 2 0 2 1 0 0 0 0 0 0 0 0 0 0
33 27 10 0 0 0 0 0 0 0 1 1 0 1 0 0 1 0 0 0 0 0 0 7 9 8 6 7 0 0 1 0 16 0 0 0 0 0 0 0 0 0 0
17 17 3 0 0 0 0 0 0 0 0 0 0 0 2 0 0 0 0 0 0 0 0 12 24 26 25 15 12 12 7 0 0 0 0 0 0 0 0 0 0 0 0
0 4 0 0 2 0 0 0 0 0 0 0 0 0 0 1 0 0 0 0 0 2 0 9 26 14 10 9 9 5 12 21 12 2 0 0 0 0 0 0 0 0 0

GFSSE_con_mlcape_093.txt.gz
CAPE
649 871 712 855 971 880 873 859 877 979 1236 1281 1243 1129 1143 1266 1333 1348 1344 1317 1294 1230 1120 1033 969 916 873 765 698 657 583 556 558 539 556 581 596 500 454 331 322 298 294
552 996 826 855 981 916 873 941 1150 1251 1297 1502 1444 1375 1339 1395 1378 1402 1256 1358 1320 1301 1205 1189 1187 1145 1010 898 752 612 548 485 503 490 411 597 550 447 383 293 294 248 200
379 965 936 866 964 1030 977 1044 1221 1501 1823 1798 1663 1502 1429 1473 1453 1313 1246 1267 1275 1243 1237 1252 1251 1204 1047 857 677 604 530 520 441 442 430 465 402 423 384 239 226 169 156
530 914 1047 982 1014 1033 1097 1188 1338 1706 2013 1891 1765 1630 1615 1527 1389 1316 1292 1246 1207 1250 1293 1228 1251 1073 928 737 608 639 549 421 247 112 215 296 338 323 269 216 182 115 62
712 871 1047 968 970 987 1091 1186 1334 1410 1810 1903 1466 1365 1100 973 937 833 943 1139 1145 1175 1301 1308 1241 1056 845 595 580 431 211 58 26 59 70 156 203 245 242 192 106 45 24
675 908 940 981 964 1028 1050 1092 1427 1186 1523 1744 1538 1141 1122 935 771 564 614 593 681 1141 1192 1171 1149 839 633 522 354 157 48 14 31 130 183 168 130 73 1 0 0 1 5
671 893 924 1082 986 1066 1064 1006 1129 1312 1449 1590 1590 1409 1198 1002 721 534 346 350 408 555 1056 1096 897 661 418 320 170 52 13 6 83 118 106 70 15 4 5 0 0 5 8
928 1021 1021 1173 1068 1104 1145 1118 1085 877 935 1011 1251 1140 983 778 530 388 341 218 161 251 450 986 663 475 301 190 57 10 0 0 12 15 9 9 1 2 9 7 4 7 7
1126 1088 1169 1176 1075 1199 1214 1038 1019 865 762 885 799 809 638 432 278 145 116 83 213 209 421 674 507 333 228 106 10 0 0 0 0 0 3 5 8 12 4 3 6 2 2
986 916 1017 1096 1133 1446 1252 977 826 716 700 641 600 382 188 61 31 39 60 78 32 138 374 544 332 247 152 30 0 0 0 0 0 0 1 7 9 13 11 7 13 7 4
729 765 877 907 958 1228 1081 912 793 605 539 401 266 54 0 7 14 30 41 22 56 46 228 365 228 173 54 4 0 0 0 0 0 0 1 1 11 18 15 11 4 6 11
616 613 781 816 973 986 924 868 648 515 301 185 158 155 130 125 134 108 183 134 4 18 110 214 158 80 23 3 0 0 0 0 0 0 4 6 16 7 7 11 9 5 10
487 504 598 688 608 766 541 659 503 360 239 71 21 128 315 358 203 134 273 105 71 36 78 152 78 74 11 0 0 0 0 0 0 1 6 7 12 4 2 8 6 14 26
344 283 440 568 367 349 277 289 201 225 194 79 86 166 277 82 132 138 93 170 96 67 48 76 110 18 0 0 0 0 0 0 0 4 3 10 15 6 11 19 28 21 20
333 295 250 388 446 206 53 4 24 127 76 53 7 6 89 0 135 172 94 204 96 10 1 33 23 0 0 0 0 0 0 0 0 7 8 13 12 7 14 21 27 27 18
278 147 193 230 284 183 45 3 17 32 13 1 1 0 22 19 98 154 111 122 72 7 0 8 12 0 0 0 0 0 0 0 0 1 10 10 11 15 20 29 25 18 13
227 135 80 125 170 124 64 9 1 23 6 0 1 2 4 65 85 159 97 76 39 3 1 0 0 0 0 0 0 0 0 0 0 1 6 14 8 14 13 24 23 18 13
189 147 96 47 39 80 41 7 1 11 3 1 2 3 3 2 57 60 74 21 8 1 0 0 0 0 0 0 0 0 0 0 0 3 10 9 13 11 10 13 13 12 10
64 177 125 49 7 13 1 2 0 2 9 10 10 8 9 25 24 57 70 7 2 2 0 0 0 0 0 0 0 0 0 0 0 4 8 3 4 6 8 4 5 4 4
5 122 173 29 0 0 1 0 1 4 12 13 17 10 15 20 26 20 2 2 2 2 0 0 0 0 0 0 0 0 0 1 2 6 9 4 9 7 8 9 8 9 3
0 50 137 0 0 0 0 1 3 1 5 16 21 26 8 1 2 2 2 2 2 1 0 0 0 0 0 0 0 4 3 2 1 1 6 6 9 6 5 11 6 4 5
0 19 52 0 0 0 2 2 1 1 1 7 9 5 4 0 0 0 0 1 0 0 0 0 0 0 0 0 0 1 4 3 1 2 0 3 6 4 4 2 1 1 0
0 0 9 0 0 1 1 1 2 4 1 4 9 8 2 0 0 0 0 0 0 0 0 0 0 0 0 0 0 13 4 4 3 1 0 0 2 1 0 0 0 0 0
0 60 10 0 0 2 0 1 2 0 2 3 1 4 0 1 0 1 0 0 0 0 0 0 0 0 0 2 4 0 13 13 40 9 0 0 0 0 0 0 0 0 0
0 97 11 1 3 3 0 0 1 1 0 5 1 0 4 2 2 1 0 0 0 0 0 0 0 0 1 7 4 7 12 11 19 12 7 5 0 11 9 7 2 0 0
57 108 7 1 1 4 1 1 1 0 0 7 2 0 2 1 1 1 1 0 0 0 0 0 0 0 0 9 9 14 16 25 22 15 2 4 3 32 31 34 6 1 3

GFSSE_con_mlcape_096.txt.gz
CAPE
571 1008 575 725 700 876 980 943 1246 1379 1193 1104 1113 1238 1273 1306 1346 1431 1473 1438 1444 1339 1276 1260 1147 1132 1054 896 692 815 770 785 736 699 589 673 714 627 473 420 485 512 408
406 1287 627 730 830 979 1033 979 1056 1404 1387 1249 1066 1278 1312 1444 1494 1512 1513 1543 1518 1446 1367 1313 1187 1202 1084 957 898 724 688 679 614 547 612 658 613 567 458 449 460 389 307
826 1349 946 831 881 1000 1066 1072 1069 1273 1562 1420 1269 1165 1181 1632 1656 1581 1493 1350 1358 1422 1409 1367 1363 1308 1218 988 826 737 711 659 522 426 494 574 554 639 527 367 309 254 197
702 1091 1318 827 901 989 1092 1140 1138 1571 1695 1672 1597 1236 1534 1686 1668 1579 1482 1337 1413 1436 1475 1547 1534 1342 1130 926 842 771 692 576 458 395 504 511 496 521 410 306 245 199 98
856 1105 1289 848 893 990 1092 1092 1168 1546 1870 1873 1869 1594 1326 1313 1328 1335 1451 1378 1342 1544 1430 1513 1426 1238 958 810 782 708 548 402 353 548 489 487 445 430 380 265 94 93 38
1021 1110 1146 825 820 941 1069 1181 1141 1630 1933 1946 1614 1347 1091 933 867 784 731 1015 1197 1195 1109 1161 1174 1025 802 648 531 379 229 132 230 285 233 297 322 362 209 49 2 0 3
1213 1274 1258 762 870 910 981 1179 1185 1200 1623 1797 1616 1373 1173 1060 939 666 669 659 429 378 581 921 1066 810 629 465 332 176 64 66 182 219 229 189 129 16 0 0 0 2 3
1431 1503 1421 902 900 915 914 992 1184 1030 1265 1054 1281 1270 1120 1055 799 645 539 456 264 277 207 370 670 660 449 306 195 100 69 139 146 149 139 87 11 6 1 0 0 2 9
1837 1543 1418 1376 1094 949 977 1004 906 1036 1116 1016 1160 1242 1206 930 675 506 346 268 194 72 45 112 270 418 282 223 145 83 74 110 139 81 34 4 0 3 7 0 3 6 8
1877 1873 1356 1363 1321 1463 1467 1009 1036 886 857 830 851 859 739 684 510 435 205 112 85 141 136 155 174 226 195 141 96 54 11 42 117 66 22 10 9 10 8 8 4 12 11
1574 1571 1295 1372 1458 1694 1734 1284 933 898 786 701 692 536 417 761 548 315 240 173 111 207 116 52 108 144 133 93 63 44 11 129 67 23 28 1 7 12 15 17 12 11 5
1215 1193 1238 1403 1435 1502 1536 1598 1348 1281 1012 1046 894 580 707 731 619 279 110 8 14 39 42 56 133 71 128 165 78 1 100 67 47 43 29 1 17 25 16 13 10 9 17
1289 1170 1003 1248 1393 1530 1338 1347 1182 1051 892 718 810 658 661 632 431 276 318 394 274 104 71 42 76 97 186 192 63 94 46 36 19 24 3 8 26 22 19 15 8 13 20
1130 1149 873 1011 1147 1261 1211 1041 901 803 578 392 381 665 711 717 654 525 428 432 236 151 129 130 11 94 162 153 143 78 18 30 33 21 1 15 15 26 14 10 20 18 12
1001 1055 935 804 951 1062 1033 817 789 719 545 545 178 269 345 385 324 407 439 287 241 171 166 109 21 120 161 119 86 31 22 15 13 11 14 10 13 19 25 23 18 19 13
695 1067 1094 715 754 895 785 579 432 437 558 455 327 215 227 319 367 364 267 234 180 163 101 98 89 114 121 83 52 49 25 7 3 6 11 16 12 18 25 22 23 19 12
453 816 1200 728 728 680 698 384 454 246 481 317 137 90 86 290 197 106 171 172 109 58 72 50 99 119 77 76 76 48 16 3 4 8 10 10 17 13 22 22 25 19 16
134 635 908 842 455 518 579 168 144 223 129 147 57 57 36 87 120 94 96 189 65 20 24 28 63 83 85 85 57 40 4 5 7 10 20 29 27 15 20 19 19 16 15
30 471 842 907 421 467 421 183 78 155 2 92 58 39 116 70 50 85 119 107 15 7 1 14 73 82 80 58 58 40 3 12 15 22 10 28 23 15 17 17 17 11 10
0 206 719 935 572 269 220 93 65 151 4 87 128 51 115 42 23 34 47 16 1 2 2 3 37 59 70 58 55 36 3 42 30 6 8 19 24 14 10 13 14 7 5
0 0 485 915 613 195 78 41 28 54 1 12 75 22 75 23 3 10 53 27 2 2 1 0 66 64 40 58 29 17 13 17 9 3 9 25 31 26 15 19 21 5 1
0 0 318 784 327 226 191 151 44 2 5 14 24 14 35 10 0 9 30 2 2 2 2 2 64 41 9 13 13 15 10 15 4 9 6 12 14 20 11 19 25 14 8
0 0 185 692 135 203 378 156 9 3 2 15 14 1 0 1 2 1 2 2 2 2 2 11 21 24 16 19 29 19 24 17 11 9 6 11 6 0 4 7 15 14 3
0 8 133 582 2 138 249 141 26 0 0 8 1 11 3 3 1 0 0 2 1 2 1 0 10 14 8 15 47 59 26 46 4 14 9 7 13 4 0 0 3 4 1
0 89 200 217 3 26 47 242 17 2 0 10 4 19 6 3 3 1 2 2 3 1 0 1 4 2 23 25 16 20 51 62 67 52 32 33 19 14 11 0 0 0 5
0 197 433 4 3 12 47 69 20 0 0 15 6 13 2 1 1 1 1 0 0 1 0 0 0 0 4 52 70 82 72 51 80 58 28 53 44 47 37 24 22 21 29

GFSSE_con_mlcape_102.txt.gz
CAPE
86 12 159 418 664 909 1119 1195 1054 1012 1035 1006 979 863 859 887 979 1192 1252 1251 1341 1508 1569 1457 1303 1049 1109 932 882 807 879 853 782 811 894 871 689 534 415 419 485 528 529
150 53 194 372 472 695 966 1242 1275 1122 1105 1138 1119 1008 1035 1094 1193 1360 1390 1350 1527 1760 1737 1483 1206 1095 1034 909 829 814 741 764 787 792 795 743 607 526 480 485 420 482 430
402 86 276 285 458 657 906 1051 1354 1349 1259 1277 1197 1060 1002 1132 1292 1455 1508 1499 1546 1500 1621 1478 1264 1291 1170 939 875 788 733 731 687 623 639 589 652 721 547 413 410 381 355
1053 505 303 285 510 733 899 998 1206 1517 1473 1351 1087 1039 936 1055 1253 1463 1556 1532 1438 1385 1513 1529 1480 1376 1155 943 896 794 705 643 578 541 620 630 618 654 516 361 317 242 146
1226 1101 601 381 521 669 796 968 1038 1357 1576 1422 1134 1185 1083 999 1231 1385 1329 1393 1141 1029 1194 1296 1338 1349 1045 907 854 730 570 444 548 563 574 519 512 555 511 283 112 33 4
939 1573 873 325 408 588 757 827 968 1294 1433 1498 1277 1234 1064 924 1032 1039 889 796 605 385 493 612 875 920 946 867 789 582 372 480 452 410 372 380 414 406 335 106 0 0 0
1180 1383 789 300 510 668 814 790 827 1195 1464 1597 1362 1224 1113 1052 975 935 936 583 442 231 134 155 229 360 504 712 745 497 392 371 408 379 348 355 282 333 176 1 0 0 0
1500 1604 684 526 610 652 806 774 685 994 1245 1288 1341 1315 1240 1112 945 607 588 494 402 177 1 0 79 58 162 232 315 317 268 245 244 277 236 181 141 185 58 0 0 0 0
1587 1747 972 711 732 742 708 741 693 729 942 1104 1207 1265 1253 1112 832 570 703 625 420 194 68 309 81 35 27 100 142 186 161 109 254 234 138 91 125 64 10 1 0 0 0
1872 2009 1657 1353 974 914 857 729 667 707 676 764 947 1144 1151 999 854 731 696 559 439 351 321 72 40 13 38 55 85 69 123 122 199 155 66 28 35 20 14 3 0 0 0
2080 1989 2011 1907 1533 1475 1420 918 684 564 516 524 648 1007 1049 899 766 615 613 489 367 314 207 7 0 5 19 23 27 37 88 167 87 53 29 14 0 11 16 8 0 0 0
2313 2155 2002 1884 1753 1764 1462 1215 1087 1016 698 552 749 872 1050 684 703 551 407 273 216 211 35 2 24 14 38 6 25 24 55 122 48 36 18 8 0 0 9 5 8 2 4
1933 2169 1862 1777 1851 1907 1452 1717 1437 1368 1236 1065 972 941 1067 622 745 489 190 248 116 59 57 76 71 36 27 1 19 29 75 87 44 35 22 5 0 0 9 14 2 7 9
1543 1946 1943 1752 1966 1657 1982 1767 1542 1296 1163 1016 1233 1134 978 656 618 449 300 246 285 152 177 106 98 62 6 0 14 68 95 162 37 13 9 0 0 0 16 3 8 9 20
1075 1560 1711 1704 1730 1810 1724 1208 1235 1188 1305 986 1164 1122 837 677 737 559 417 257 238 221 244 126 103 52 20 4 47 50 166 98 27 27 7 0 0 0 4 11 11 23 16
456 1287 1719 1750 1668 1754 1849 1405 1161 955 857 1032 819 1099 1178 701 646 529 348 308 344 324 290 204 168 96 23 23 86 57 151 98 36 26 0 0 0 0 7 13 20 24 22
0 1319 1709 1827 1458 1534 1834 1646 1180 763 1002 1019 783 855 1005 946 793 449 343 320 420 317 436 241 98 93 10 48 50 49 100 36 23 4 0 0 1 0 4 24 28 34 27
0 228 1824 1947 1487 1218 1837 1619 1207 767 939 959 760 680 593 647 610 553 459 359 331 304 241 137 55 61 19 33 49 44 39 1 2 0 1 0 0 13 9 5 14 25 19
0 0 1645 1835 1332 1092 1556 1620 1294 877 659 659 680 746 757 562 520 422 331 283 113 170 205 171 80 0 6 31 34 47 27 0 0 2 2 0 0 7 5 11 16 12 14
0 0 1705 1815 1432 1065 1025 1532 1200 1151 670 610 582 523 317 466 417 419 277 164 71 174 143 163 58 47 21 27 52 49 4 1 0 7 3 0 0 0 0 1 7 6 4
0 0 1360 1930 1867 1359 851 868 889 757 563 302 457 531 359 217 182 167 168 82 89 152 74 106 50 51 38 31 46 12 34 16 5 12 11 18 9 1 6 17 7 0 0
0 0 0 1586 2075 1605 1052 805 565 392 278 192 263 439 240 240 236 131 46 27 65 51 56 56 38 14 30 7 15 13 15 35 26 11 3 9 21 9 10 5 12 7 0
1 0 0 86 1735 1751 1242 695 558 412 395 169 421 342 476 164 80 96 28 0 4 13 16 24 21 8 12 2 17 0 1 2 8 11 5 0 13 22 2 0 0 0 0
0 0 0 0 287 1698 1164 663 643 620 507 360 399 250 380 204 143 34 3 4 2 4 2 9 29 10 7 9 17 11 6 0 0 0 9 4 0 9 13 5 1 0 3
0 0 0 0 0 1292 1128 895 754 866 657 412 296 235 148 22 0 1 0 2 0 2 4 13 17 31 29 2 7 5 3 7 6 0 0 0 0 0 0 0 4 1 0
0 0 4 0 0 1044 1304 1013 967 1027 696 473 288 178 14 0 2 1 1 1 7 2 5 2 2 7 23 13 12 11 3 17 3 0 0 0 0 0 0 0 0 0 0

GFSSE_con_mlcape_105.txt.gz
CAPE
0 436 633 624 720 877 851 812 825 868 857 788 723 646 589 785 1047 1244 1348 1507 1641 1745 1606 1318 1156 948 1056 955 1001 894 736 716 724 749 1008 872 728 731 748 647 606 567 583
0 389 490 521 624 884 1019 947 876 904 978 933 853 698 709 924 1143 1225 1363 1483 1552 1756 1590 1191 1218 1106 1185 1041 937 895 854 806 823 806 883 871 819 823 709 608 577 537 522
0 209 430 304 476 724 954 1081 1033 1029 1091 1117 1045 811 847 942 1163 1273 1330 1447 1569 1534 1585 1375 1347 1310 1137 926 887 894 854 760 674 775 705 658 756 768 707 620 565 512 470
0 163 277 292 371 608 764 948 1111 1205 1248 1237 1126 931 952 979 1075 1152 1353 1492 1557 1408 1297 1251 1466 1165 835 857 845 866 763 664 724 618 617 662 681 721 665 567 477 487 464
48 176 274 301 336 495 742 803 1013 1306 1389 1333 1142 1048 1039 1031 1113 1119 1278 1122 812 684 645 735 1137 763 798 802 732 684 571 607 642 560 548 522 579 646 582 478 323 169 144
703 184 151 167 291 548 718 741 838 1217 1435 1399 1155 1131 1034 1055 849 993 867 708 533 342 303 338 369 577 591 649 686 439 388 466 357 394 426 486 491 562 421 143 47 25 17
1136 773 308 245 347 540 690 763 919 1033 1230 1424 1254 1135 1045 1071 848 732 815 585 279 73 164 220 201 282 381 596 542 289 393 260 281 219 327 351 415 432 220 27 0 0 0
1186 864 432 464 423 519 648 718 802 1000 1205 1430 1423 1271 1171 1039 865 811 737 501 49 0 35 107 4 1 74 244 250 240 202 202 222 200 185 252 422 327 96 1 0 0 0
1208 812 330 578 559 597 643 635 634 829 944 1039 1186 1308 1288 1074 875 514 635 459 144 48 6 22 0 2 23 103 151 137 145 115 172 130 143 218 257 201 16 1 0 0 0
1332 956 209 393 524 498 600 627 554 524 599 757 951 1102 1233 1109 860 507 509 499 273 86 0 8 22 23 5 43 88 99 48 87 150 87 82 113 114 112 23 6 0 0 0
1612 1414 904 496 438 454 525 557 556 511 415 435 619 949 1023 900 732 541 569 567 332 79 111 242 53 0 0 23 64 66 49 32 53 37 46 104 111 62 22 12 0 0 0
1609 1689 1535 1167 862 1028 884 595 486 463 294 260 370 799 896 773 665 542 547 502 343 170 226 85 26 0 0 6 52 51 19 35 25 35 21 73 88 32 12 8 1 0 0
1831 1771 1835 1729 1434 1514 1295 737 611 574 381 278 414 556 788 591 475 416 381 351 287 197 59 4 0 0 0 0 13 18 18 44 14 27 30 43 55 21 0 10 7 0 1
2033 1951 1856 1660 1625 1717 1486 1066 1001 970 790 563 546 586 573 310 355 200 210 158 65 86 0 0 0 0 0 0 0 1 31 74 10 16 27 3 3 0 0 5 2 7 13
1889 1985 1824 1628 1646 1685 1680 1425 1154 1099 959 829 832 802 544 328 387 197 114 99 50 32 0 0 0 2 0 0 0 3 50 67 19 2 6 0 0 0 1 7 9 12 16
1787 1842 1820 1642 1424 1579 1808 1451 1247 1230 976 755 792 843 673 499 417 311 178 152 96 25 10 0 15 10 3 0 1 1 46 45 11 0 1 0 0 0 0 6 13 26 19
1009 1773 1720 1614 1334 1657 1537 1305 1050 1057 952 801 845 966 655 511 494 358 203 112 86 77 109 81 47 16 2 1 8 10 63 40 3 4 8 0 0 0 0 6 18 17 13
0 1450 1669 1598 1408 1547 1485 1421 1028 736 690 713 686 574 921 712 495 326 221 130 128 107 100 60 59 43 13 1 11 22 50 27 9 0 0 0 0 0 0 6 14 11 11
0 846 1444 1613 1456 1301 1564 1450 1119 807 598 922 702 511 553 817 648 362 271 187 137 102 126 53 27 34 17 0 25 20 42 3 2 0 0 0 0 0 0 16 15 14 7
0 503 1363 1511 1455 1293 1337 1491 1218 912 649 733 764 513 438 393 482 519 383 315 131 76 109 77 24 3 27 6 45 45 39 2 0 0 0 0 0 0 0 6 13 13 11
0 647 1300 1414 1361 1199 926 1455 1189 935 546 432 518 615 617 432 404 369 321 232 130 81 62 93 33 11 1 9 57 33 14 0 0 0 0 0 0 0 0 0 4 7 9
0 48 1185 1314 1281 1188 732 1139 1099 912 620 493 301 379 377 361 248 249 219 146 83 71 48 62 37 11 6 17 28 0 6 3 13 3 1 1 0 0 0 0 0 0 0
0 0 1611 1397 1265 1112 939 745 739 533 450 297 166 173 229 185 212 96 37 65 35 42 42 70 34 18 5 14 13 0 0 5 8 15 10 14 8 4 0 0 0 0 0
0 0 0 1693 1438 1126 962 750 489 309 235 258 87 56 115 181 87 110 41 0 0 4 7 16 24 17 4 19 4 0 0 0 0 1 11 1 5 13 0 1 0 0 0
0 0 0 0 521 1230 1008 883 542 383 217 198 84 185 180 192 89 43 20 0 0 1 2 4 25 12 8 22 14 0 0 0 6 4 0 0 0 0 2 0 0 0 0
0 0 0 0 0 229 811 898 725 480 344 275 205 153 96 61 29 3 0 0 2 2 4 6 34 2 13 13 3 0 0 0 3 15 2 0 0 0 0 0 0 0 0

GFSSE_con_mlcape_108.txt.gz
CAPE
383 686 942 811 737 733 750 774 761 679 603 530 478 617 883 1026 1125 1222 1317 1281 1442 1477 1401 1263 1112 1040 971 837 921 956 812 719 682 774 938 980 1043 992 884 763 718 698 707
135 723 906 925 795 771 756 792 831 775 718 633 576 638 863 1023 1184 1321 1458 1591 1595 1459 1332 1140 1198 1227 1029 947 879 825 755 832 978 994 937 1021 976 962 851 705 655 669 649
65 634 918 901 904 862 805 821 868 914 910 779 677 728 905 1054 1191 1364 1459 1677 1502 1198 1244 948 1051 960 1041 1031 984 985 956 1010 998 952 977 871 867 902 820 715 675 628 594
29 472 805 877 886 911 819 846 962 1070 1081 937 812 808 881 1020 1138 1229 1420 1485 1176 856 934 783 939 925 930 944 949 1011 996 896 860 824 737 654 727 881 782 653 600 569 477
17 261 592 744 742 796 779 929 1075 1204 1160 1052 949 909 946 1116 1179 1226 1140 969 835 778 881 899 790 665 727 832 887 859 828 734 669 556 662 534 701 787 741 695 607 456 378
9 209 570 627 641 697 724 940 1204 1314 1235 1138 1062 998 1009 1151 1184 1148 1027 704 551 579 573 552 516 587 699 783 724 693 624 554 479 443 481 543 644 780 622 311 228 235 274
19 176 475 639 642 658 715 895 1214 1325 1307 1195 1072 1053 1007 1077 1014 1031 780 509 414 387 412 434 474 434 467 510 508 484 413 398 371 392 390 409 588 562 391 192 91 81 55
0 125 337 632 606 714 746 800 929 1149 1333 1288 1155 1125 1107 978 1003 795 582 373 314 310 175 155 159 193 357 334 322 397 269 306 289 184 305 364 443 385 243 96 9 0 0
393 271 201 448 684 829 767 805 975 1071 1214 1327 1259 1193 1129 960 912 791 374 54 0 62 101 72 12 60 132 316 239 223 216 246 196 178 205 372 315 264 83 0 0 0 0
820 432 168 354 695 732 750 723 868 936 1065 1209 1245 1203 1141 923 846 754 469 211 177 80 76 23 0 0 7 174 156 147 114 200 186 145 167 278 267 182 12 0 0 0 0
829 528 157 280 478 535 638 669 739 886 927 899 1053 1133 1135 921 803 661 533 221 51 32 23 7 10 15 8 67 88 45 82 128 125 113 107 251 238 175 17 5 0 0 0
942 618 158 192 362 464 572 649 548 569 606 637 830 902 982 861 633 543 439 263 159 86 21 14 57 8 0 5 40 50 69 115 106 107 128 130 237 168 24 7 1 0 0
976 1186 877 319 370 531 578 449 406 420 319 338 597 803 809 673 504 480 485 414 279 100 112 167 96 6 0 7 30 34 63 104 95 107 125 127 175 166 12 0 5 0 1
1343 1370 1421 1011 784 1028 867 494 410 311 180 223 397 755 655 520 393 339 413 365 231 62 92 80 10 0 0 0 13 26 30 64 78 92 87 80 166 116 18 4 7 7 2
1480 1565 1590 1365 1158 1310 1309 782 597 496 359 241 312 605 537 414 328 272 281 219 135 56 48 20 0 0 0 0 0 8 18 53 41 52 73 70 86 42 8 6 7 7 10
1776 1678 1647 1648 1426 1394 1616 1191 936 860 651 514 454 493 423 288 201 210 187 173 86 57 4 0 0 0 0 0 0 2 14 49 29 42 41 41 9 0 2 6 7 5 11
1843 1835 1693 1791 1612 1367 1662 1496 1157 1031 872 699 704 616 402 243 169 123 119 94 26 13 6 0 0 0 0 0 2 1 4 33 25 27 12 6 0 0 0 3 5 13 11
1386 1823 1837 1790 1694 1374 1458 1662 1263 1120 988 739 755 789 525 342 278 176 104 80 34 0 0 0 0 0 0 7 18 20 12 19 18 16 9 5 0 0 0 0 5 21 20
180 1065 1607 1787 1608 1530 1293 1590 1214 1137 1067 729 621 720 634 433 346 269 182 96 87 39 0 3 8 1 1 2 10 24 27 10 12 14 3 1 0 0 0 0 11 20 14
0 160 806 1279 1566 1516 1292 1253 1021 880 815 780 724 638 558 591 332 278 172 94 39 13 7 39 64 10 0 12 26 34 42 7 6 16 1 1 0 0 0 0 18 14 14
0 0 411 886 1436 1414 1312 1229 1157 1013 688 678 570 587 425 547 543 291 190 107 40 36 26 17 8 8 3 4 18 29 11 1 0 6 3 1 0 0 0 0 8 15 12
0 0 21 531 1138 1412 1473 1381 1261 991 713 604 594 753 492 295 395 505 315 156 46 17 3 15 6 1 2 3 2 29 12 1 0 0 0 0 0 0 0 0 0 0 4
0 173 1258 1309 1145 1342 1466 1319 917 687 621 578 502 498 490 382 277 215 205 193 133 91 31 12 5 0 1 2 0 5 3 1 0 0 0 0 0 0 0 0 0 0 0
0 0 2 1429 1304 1142 946 1141 968 814 801 687 501 284 353 421 350 201 94 61 46 53 61 1 2 1 0 0 0 3 0 0 0 0 0 0 0 0 0 0 0 0 0
0 0 0 0 0 219 819 843 869 897 746 387 281 242 205 177 159 172 71 27 1 21 3 4 3 3 1 7 2 1 0 0 0 0 0 3 0 2 0 0 0 0 0
0 0 0 0 0 0 10 765 833 702 522 353 198 165 33 34 28 93 51 26 16 2 0 1 3 3 9 26 4 0 0 0 0 0 0 4 0 0 0 0 0 0 0

GFSSE_con_mlcape_111.txt.gz
CAPE
268 756 828 910 961 812 708 604 505 478 460 448 477 672 1196 1268 1210 1117 1013 1043 1224 1216 1391 1270 1120 1082 982 860 1016 950 1011 934 883 1187 1203 1187 1138 1112 1037 953 915 850 798
270 809 944 961 982 922 841 737 618 575 532 477 535 665 908 1126 1165 1087 1116 1305 1355 1398 1379 1153 1116 1077 972 862 1022 983 949 906 951 1120 1111 1149 1140 1095 986 868 842 793 762
259 849 1012 945 996 1007 971 889 780 749 655 561 582 743 896 1079 1265 1413 1509 1437 1221 1192 1172 1088 1114 966 956 906 929 940 988 991 1101 1081 1134 1012 884 948 982 865 831 754 740
308 797 932 970 994 1015 995 976 953 908 767 674 705 857 985 1155 1379 1512 1482 1193 1044 978 1056 1092 1025 846 1000 950 949 975 1035 1044 1055 1045 756 679 800 924 940 841 776 760 672
472 680 744 959 998 1055 987 996 1054 1033 865 761 757 936 1057 1200 1411 1463 1408 1118 992 899 1130 1140 977 881 915 959 977 977 964 890 857 727 677 777 806 903 904 827 693 593 523
414 553 741 808 994 1084 1052 1017 1106 1057 981 877 823 913 1103 1214 1309 1418 1084 830 886 901 1071 912 776 713 798 912 899 803 798 717 634 523 589 688 728 918 787 479 325 324 277
187 412 596 787 926 1110 1123 1126 1194 1121 1093 1029 884 940 1125 1292 1347 1067 795 634 733 780 781 747 667 714 804 791 711 599 586 516 507 437 530 539 720 809 645 434 316 293 187
11 231 426 786 827 1012 1085 1138 1215 1213 1210 1105 975 956 1099 1242 1217 921 684 515 529 488 474 426 502 634 679 653 561 495 428 432 353 397 390 485 690 632 448 237 116 71 15
49 182 503 725 939 989 894 1054 1242 1331 1308 1157 1054 971 1070 1100 989 840 603 434 405 311 214 336 426 483 470 467 422 338 322 327 273 247 310 463 413 527 323 168 45 0 0
85 150 291 617 771 860 858 925 1111 1334 1350 1236 1104 1052 1073 1011 853 671 503 325 222 113 86 101 123 242 340 322 313 241 254 259 206 201 205 365 380 376 142 36 0 0 0
25 73 237 385 488 618 735 988 1108 1199 1229 1280 1214 1152 1043 975 883 561 218 128 10 28 55 1 0 0 104 231 201 139 211 205 168 173 203 293 341 264 58 2 0 0 0
234 39 157 280 269 483 685 834 958 1057 1130 1162 1199 1187 1029 876 807 656 289 269 239 104 21 0 0 0 0 80 135 39 155 151 141 148 191 232 333 232 51 2 0 0 0
521 284 133 114 235 303 519 608 688 782 831 855 954 1042 1001 788 756 619 484 303 114 21 13 12 7 0 0 0 39 28 41 81 93 115 161 199 205 284 97 1 1 2 0
746 398 160 96 117 234 349 489 483 511 532 559 728 865 882 748 606 507 435 254 126 81 17 0 0 0 0 0 0 0 26 62 66 88 123 139 176 234 134 5 1 7 0
983 804 369 147 118 199 226 324 402 395 309 352 573 750 784 696 530 418 378 298 185 52 0 0 0 0 0 0 0 0 1 59 81 69 97 107 100 122 115 11 11 5 7
1279 1272 1056 612 338 331 390 326 320 344 248 259 388 667 680 578 429 356 272 258 204 23 0 0 0 0 0 0 0 2 10 7 49 74 73 67 55 73 68 8 6 11 9
1404 1577 1454 1288 903 696 765 671 498 420 357 258 338 623 611 521 382 332 293 229 128 19 0 0 0 0 0 0 0 0 0 1 25 56 32 54 44 47 31 4 6 10 11
1626 1714 1730 1679 1345 1086 1045 1026 912 701 557 402 380 427 476 457 333 239 216 181 56 35 15 0 0 0 0 0 0 0 0 0 3 40 19 40 35 53 7 0 4 15 9
1781 1904 1889 1793 1614 1468 1384 1318 1182 1003 847 612 561 496 406 391 245 173 148 103 47 26 10 0 0 0 0 0 0 1 0 0 0 25 23 36 10 4 0 0 2 14 16
1548 1925 2067 1855 1700 1639 1480 1386 1130 1123 924 720 703 692 576 427 251 166 112 68 47 16 0 0 0 1 1 0 6 6 8 1 0 7 22 25 20 0 0 0 0 11 21
0 1138 1627 1735 1704 1649 1462 1340 1120 1414 1075 885 745 727 687 482 355 260 184 97 34 44 25 12 1 2 2 1 7 3 2 2 1 4 13 10 6 1 0 0 0 11 18
0 0 348 1443 1308 1532 1556 1438 1161 1279 916 907 694 621 688 606 426 367 272 166 71 38 33 19 1 2 3 2 2 5 1 1 0 1 3 2 8 0 0 0 1 12 13
0 0 0 762 1271 1515 1526 1221 1022 786 586 601 773 781 660 577 492 439 299 204 93 58 45 20 0 3 1 2 5 3 2 7 1 1 0 0 4 6 3 0 0 0 4
0 0 0 695 1373 1359 1501 1309 1126 1170 954 846 696 617 613 428 395 373 392 251 126 72 52 32 2 8 12 8 3 1 0 0 0 0 1 1 0 2 0 0 0 0 0
0 0 0 0 0 0 1006 1275 1163 1163 986 715 622 508 518 485 437 252 202 178 195 127 104 85 7 12 10 11 10 6 1 0 0 0 1 1 1 0 0 0 0 0 0
0 0 0 0 0 0 0 214 1047 1041 973 830 630 521 444 351 385 328 184 117 79 61 43 59 8 11 13 10 7 5 1 2 0 0 0 1 0 0 0 0 0 0 0

GFSSE_con_mlcape_114.txt.gz
CAPE
81 713 926 883 904 743 599 509 489 423 505 787 1034 1089 1033 892 888 895 929 1111 1314 1388 1373 1242 1105 1137 1123 1237 944 1162 1112 1060 997 1219 1271 1309 1319 1226 1115 1084 966 938 966
140 844 938 965 970 821 674 586 560 511 461 759 1037 1227 1154 1053 1055 1030 1094 1220 1340 1327 1358 1201 1146 1043 1062 1150 1043 1066 996 1069 1158 1302 1285 1297 1243 1232 1114 923 880 925 879
324 900 930 1006 1070 937 776 680 626 580 524 564 865 1191 1242 1257 1193 1139 1182 1250 1335 1409 1332 1209 1105 1002 980 1054 1062 989 968 1098 1200 1265 1274 998 1042 1070 1063 930 892 870 841
558 861 938 1062 1164 1065 904 802 770 731 642 601 747 1016 1248 1269 1269 1256 1247 1246 1294 1376 1375 1320 1215 1091 918 966 993 982 1041 1106 1187 1113 874 855 933 1013 989 880 867 867 807
540 837 951 1077 1162 1111 1042 977 917 820 718 686 751 926 1192 1349 1366 1355 1217 1116 1191 1262 1290 1282 1218 1067 900 890 980 1032 1028 991 976 794 702 735 853 895 998 938 849 770 678
470 817 946 1082 1116 1096 1126 1108 1052 862 780 764 843 1018 1269 1372 1408 1319 1061 942 1088 1178 1128 1263 1133 980 945 964 984 939 908 880 714 631 591 784 732 954 960 772 533 458 492
474 765 1014 1046 1046 1039 1143 1187 1152 942 832 824 958 1109 1307 1427 1498 1210 992 892 989 1113 1286 1175 848 877 941 983 944 868 799 745 562 521 517 646 692 901 794 496 325 244 150
171 647 957 1090 1002 979 1107 1208 1196 1045 925 872 957 1176 1269 1387 1290 1043 837 829 960 1126 1097 701 648 814 932 912 843 747 695 606 466 440 469 646 714 720 569 442 325 160 61
402 616 839 1002 1076 1109 1056 1153 1161 1125 1078 940 937 1137 1264 1216 1062 885 723 665 733 777 607 573 680 781 825 736 655 591 540 474 407 391 402 623 522 663 504 259 156 63 2
425 525 608 736 781 1023 1172 1197 1193 1208 1169 1049 957 1062 1130 1102 975 791 608 543 513 471 480 515 562 639 702 606 532 485 421 408 342 310 290 376 443 637 383 212 103 4 0
234 325 374 427 588 695 972 1196 1263 1333 1271 1128 1074 1047 1028 961 914 734 522 454 350 254 221 306 377 452 490 475 362 355 350 312 291 240 219 273 470 532 282 147 36 0 0
0 52 264 360 456 596 757 1037 1224 1377 1396 1232 1129 1059 935 872 761 587 358 317 148 60 10 40 13 73 225 206 203 228 205 154 179 176 148 250 380 361 121 19 0 0 0
17 12 207 288 477 571 633 771 913 1029 1150 1214 1136 1061 907 843 783 504 261 154 5 8 2 0 0 0 1 95 109 126 156 123 125 131 110 183 335 328 125 3 0 0 0
20 32 142 313 350 465 509 593 760 838 844 959 1073 1047 885 786 737 602 350 198 94 31 0 0 0 0 0 5 85 55 38 76 68 136 107 120 196 345 155 15 3 3 0
270 91 80 232 290 355 310 364 479 628 675 722 848 969 913 777 708 609 525 312 211 22 0 0 0 0 0 0 0 0 6 50 75 71 75 135 151 258 251 83 16 12 6
1022 575 345 196 285 340 266 180 209 388 473 538 670 797 888 766 642 589 501 383 223 31 0 0 0 0 0 0 0 0 0 6 60 53 65 56 63 87 143 116 14 11 7
1419 1116 740 376 351 310 230 152 163 193 285 390 520 636 753 723 632 536 439 285 186 31 0 0 0 0 0 0 0 0 0 0 20 59 50 46 58 46 60 61 25 16 16
1467 1429 1210 690 386 322 285 195 200 200 221 262 336 516 631 642 546 462 377 246 115 51 14 0 0 0 0 0 0 0 0 0 0 28 36 31 47 45 56 58 6 7 10
1421 1515 1540 1332 943 647 550 386 362 282 243 234 285 377 503 551 453 435 363 216 67 93 35 0 0 0 0 0 0 0 0 0 0 5 11 20 12 30 39 64 10 3 7
1368 1532 1589 1665 1562 1194 1038 886 758 576 453 375 338 333 317 475 424 379 241 133 74 77 50 1 0 1 0 0 2 1 0 0 0 0 2 20 18 10 4 35 3 1 12
247 1396 1694 1788 1713 1520 1450 1256 1002 841 697 613 518 462 365 362 355 320 226 89 80 97 59 3 0 1 3 0 2 1 2 1 0 2 7 16 11 11 18 10 3 0 10
0 0 1115 1906 1747 1678 1656 1469 1182 1118 1021 884 693 619 579 439 335 306 219 94 67 70 32 14 10 14 2 1 0 1 3 1 0 3 7 7 4 0 0 3 0 0 5
0 0 0 1008 1823 1707 1585 1361 986 957 808 904 795 765 765 553 417 355 234 153 55 57 41 29 34 27 10 1 1 2 11 5 0 1 3 1 1 1 0 0 0 0 6
0 0 0 17 1148 1511 1665 1535 1338 1346 1183 1109 1087 831 753 540 586 396 288 252 143 89 66 62 50 31 11 5 5 4 1 4 9 0 1 1 1 1 0 3 1 0 0
0 0 0 0 0 0 543 1624 1312 1342 1177 953 900 862 807 670 509 478 406 253 196 92 85 71 51 28 15 15 21 15 11 5 3 6 1 1 1 1 0 0 1 0 0
0 0 0 0 0 0 0 77 1062 1307 1219 993 839 852 751 666 484 456 401 308 187 170 116 77 56 33 29 9 17 23 22 11 1 1 0 1 0 2 1 0 0 0 0

GFSSE_con_mlcape_117.txt.gz
CAPE
433 950 874 967 864 653 522 451 513 607 696 1007 1012 945 801 837 872 1019 1138 1364 1469 1462 1401 1273 1120 1332 1272 1124 1082 1231 1310 1277 1202 1388 1430 1446 1409 1279 1257 1161 1106 1119 1025
558 1095 920 1007 919 760 612 509 534 681 843 979 1140 1066 984 936 1009 1058 1192 1304 1267 1450 1334 1173 1228 1266 1344 989 1183 1160 1121 1117 1242 1375 1315 1370 1326 1333 1218 1044 1085 1064 998
693 1125 1052 1035 970 849 726 609 562 788 984 1157 1196 1198 1094 1073 1073 1051 1204 1379 1516 1556 1369 1245 1167 1178 1132 1003 1086 1050 1080 1177 1331 1298 1238 1279 1242 1229 1125 1054 1006 996 939
811 1150 1280 1100 1029 915 801 695 632 725 1010 1198 1281 1287 1227 1204 1160 1186 1339 1428 1506 1484 1401 1293 1216 1193 1148 1007 1015 1037 1139 1245 1318 1233 1242 1110 1162 1144 1118 1033 979 997 948
1115 1213 1350 1144 1091 1001 901 831 792 718 878 1228 1393 1456 1421 1292 1189 1236 1278 1394 1455 1434 1402 1414 1350 1108 1053 1058 1023 1040 1076 1124 1080 1138 895 1089 1189 1025 1122 1067 955 875 843
1146 1218 1213 1136 1132 1119 1036 976 926 798 759 991 1409 1569 1454 1342 1319 1265 1265 1342 1419 1435 1525 1567 1378 991 932 981 999 1000 1058 973 982 1061 863 1046 978 995 1029 892 658 799 718
1170 1269 1262 1146 1168 1222 1181 1139 1028 874 801 898 1137 1343 1422 1455 1455 1302 1212 1209 1346 1323 1540 1585 1109 904 897 955 971 950 946 872 1102 885 788 948 843 932 961 671 471 485 416
1215 1306 1360 1206 1283 1313 1309 1282 1129 941 865 953 1076 1132 1301 1372 1345 1159 1035 1106 1241 1346 1432 1170 880 881 892 922 897 879 845 747 873 774 856 593 873 900 669 517 323 180 135
1098 1151 1231 1462 1453 1308 1280 1261 1196 1033 950 1025 1083 1167 1297 1299 1249 1055 999 1070 1186 1225 1109 742 732 795 880 883 816 777 758 636 988 809 672 871 652 735 608 487 251 151 86
812 1014 1083 1304 1609 1583 1389 1226 1228 1137 1007 1052 1112 1142 1197 1189 1167 1001 865 973 1038 1081 728 596 706 804 828 775 709 679 633 513 929 767 718 879 441 735 636 358 190 50 1
457 769 1047 1153 1277 1428 1299 1371 1298 1260 1125 1070 1160 1164 1152 1453 1253 1017 868 759 739 672 524 558 681 741 664 592 563 523 348 805 762 672 550 490 361 507 442 215 100 9 0
263 497 798 940 1014 1127 1059 1245 1527 1547 1486 1411 1401 1408 1596 1501 1409 1172 777 555 475 393 369 437 468 533 620 852 668 426 513 511 560 375 381 193 227 503 421 230 60 1 0
431 467 513 670 866 860 904 1065 1256 1380 1521 1487 1525 1511 1416 1278 1104 943 821 629 558 183 291 249 268 583 661 758 743 763 685 339 475 276 211 132 156 291 269 144 42 0 0
179 301 326 591 676 773 825 887 1076 1115 1258 1262 1415 1410 1166 916 879 879 725 731 531 288 233 148 11 0 110 449 560 632 587 339 471 267 149 103 115 232 265 121 29 3 0
366 192 354 426 572 723 631 773 861 980 1061 1254 1267 1290 1222 966 814 834 700 563 345 190 248 112 7 0 0 87 382 404 320 441 405 366 350 125 136 146 184 193 60 10 6
825 473 359 309 506 709 589 693 709 804 910 1061 1225 1186 1223 1021 834 731 686 507 482 357 52 77 19 0 0 16 118 247 272 324 376 304 187 84 58 82 132 133 101 31 16
570 1142 432 354 531 570 628 621 585 639 735 982 1081 1123 1147 1060 823 751 608 595 568 265 17 72 20 0 0 0 2 41 51 125 234 194 193 128 57 46 52 89 87 39 17
0 1112 1162 555 465 627 634 618 403 548 646 938 965 873 923 1025 911 716 595 576 547 128 56 73 0 0 1 0 0 0 0 25 99 187 194 146 126 71 49 32 48 26 8
0 529 1240 1141 691 612 791 719 510 442 636 809 811 672 731 907 941 742 579 416 253 143 37 60 0 0 0 1 0 1 2 7 34 70 68 121 141 120 66 43 49 30 4
0 227 1340 1259 1161 883 861 735 665 565 594 694 688 717 643 710 765 806 571 389 210 151 46 70 16 4 30 54 0 0 3 3 6 4 12 85 147 127 82 44 41 12 7
0 88 1325 1581 1318 1025 860 604 532 468 488 500 691 717 537 611 663 786 509 316 147 165 111 71 11 18 2 8 3 1 2 3 2 1 1 2 72 54 31 18 25 39 11
0 0 1487 1800 1707 1255 1126 975 902 707 736 640 548 616 611 610 543 692 548 333 177 159 97 30 23 4 5 2 0 4 5 1 1 2 8 4 20 40 8 2 9 20 7
0 0 1 1598 1947 1681 1577 1333 1210 1105 1099 968 787 687 681 696 525 562 512 387 235 203 142 46 28 46 28 3 1 8 5 2 1 2 4 3 18 10 8 9 1 4 27
0 0 0 137 1769 1841 1452 1548 1403 1372 1290 1292 1155 933 842 755 646 565 493 426 280 187 173 58 27 54 19 5 4 7 11 3 14 1 1 4 11 8 8 4 1 0 4
1 0 0 0 0 87 1329 1633 1495 1525 1581 1446 1367 1054 914 807 621 684 588 471 372 245 249 176 93 62 63 80 4 6 20 20 14 7 3 1 3 3 4 8 4 0 0
1 1 0 0 0 0 1 84 1204 1535 1662 1423 1375 1262 1166 877 714 771 671 558 458 379 407 220 144 92 92 61 14 3 5 12 8 10 15 2 0 1 2 2 1 0 0

GFSSE_con_mlcape_123.txt.gz
CAPE
384 1832 1077 1019 864 751 775 908 1117 1271 1238 1044 930 786 834 891 902 991 1024 976 1181 1571 1842 1583 1348 1239 1026 949 970 785 844 1049 1151 1111 1126 1306 1277 1102 827 814 1009 1079 1067
692 2027 1171 1144 960 806 846 962 1166 1336 1354 1209 1039 906 904 944 932 1090 1241 1266 1484 1895 1959 1739 1494 1329 1232 1330 964 1025 1135 1229 1316 1227 1347 1360 1058 761 648 746 717 1049 1061
894 2230 1411 1301 1033 841 875 991 1173 1368 1434 1325 1117 1017 1001 1017 1059 1228 1457 1401 1435 1749 1795 1481 1347 1280 1521 1180 1080 1283 1219 1301 1281 1179 1195 859 991 913 1077 960 796 1020 979
1181 2044 1710 1300 1030 844 843 977 1100 1287 1539 1458 1314 1172 1084 1120 1232 1412 1553 1555 1521 1695 1554 1460 1544 1686 1377 1031 1199 1197 1230 1254 1205 1020 1196 766 1085 1245 1201 898 1034 999 981
1336 1918 1901 1323 1044 850 814 904 1034 1240 1407 1586 1519 1442 1256 1229 1377 1498 1571 1510 1426 1387 1352 1515 1474 1646 1102 1077 1114 1122 1193 1194 1026 1015 1081 1007 1131 1271 1245 1102 1000 813 936
1592 1929 1917 1443 1179 952 792 877 1109 1283 1399 1544 1643 1644 1459 1366 1485 1537 1596 1558 1449 1411 1368 1481 1348 1186 951 993 1044 1094 1127 1103 953 1478 1007 1083 982 1124 1202 699 701 803 796
1586 1980 2322 1579 1322 1039 916 961 1100 1250 1454 1540 1687 1676 1607 1563 1592 1500 1532 1617 1596 1467 1503 1311 1211 1055 942 971 1048 1074 1061 1028 1195 1107 1175 1005 1087 953 896 702 698 663 746
1525 2068 2768 1747 1439 1246 1070 1016 1050 1194 1431 1622 1669 1682 1638 1564 1398 1445 1603 1683 1634 1522 1509 1435 994 960 956 935 975 975 971 924 1067 1052 1060 954 1013 833 986 614 540 599 637
2151 2268 2605 2332 1776 1400 1194 1082 1003 1112 1388 1673 1729 1753 1660 1454 1392 1490 1561 1632 1651 1594 1471 1289 935 879 881 863 843 832 843 858 1024 733 1002 1037 886 719 830 529 356 398 400
2150 2649 2707 2710 2279 1980 1730 1255 1074 1026 1241 1602 1734 1757 1696 1512 1376 1434 1480 1560 1593 1533 1454 1153 909 875 865 807 758 752 631 587 1032 893 966 985 765 406 473 375 279 165 150
1276 2298 2635 2695 2520 2291 2210 1928 1284 1103 1113 1296 1632 1716 1638 1590 1650 1647 1453 1402 1466 1412 1271 1002 869 842 789 758 738 612 538 708 660 911 702 523 388 265 306 292 209 119 41
0 1248 2330 2478 2438 2309 2025 2223 1912 1695 1452 1468 1487 1742 1629 1400 1662 1474 1290 1290 1252 1240 1003 768 755 728 710 925 907 612 771 615 815 920 925 240 264 302 296 226 174 84 8
0 0 1692 2112 2311 1963 2066 1883 1951 1662 1530 1626 1709 1842 1610 1644 1707 1502 1520 1393 1351 1052 960 710 764 914 724 826 767 616 618 827 782 769 518 146 249 297 130 72 91 94 20
0 0 0 1819 1853 1713 2058 1742 1707 1476 1473 1409 1557 1909 1837 1856 1620 1448 1476 1329 1368 1093 972 762 694 697 754 929 682 679 801 691 559 901 679 93 172 174 66 38 73 85 12
0 0 0 652 1739 1740 1935 1697 1622 1675 1585 1340 1578 1961 2104 1907 1856 1585 1619 1385 1265 1211 1082 882 870 893 759 747 818 664 668 612 631 730 759 63 104 31 8 59 67 52 54
0 0 0 0 1475 1694 1639 1946 1757 1731 1632 1818 1969 1988 2207 2167 2063 1838 1564 1516 1300 1282 1204 1015 847 807 840 791 677 650 541 598 565 549 741 169 2 14 82 206 55 40 18
0 0 0 0 545 1763 1651 1562 1733 1593 1819 1750 1768 1979 2263 2136 2104 1917 1624 1628 1462 1428 1075 991 854 785 724 565 576 575 490 497 451 439 562 689 95 0 16 47 48 36 29
0 0 0 0 0 1690 1730 1480 1664 1536 1663 1718 1699 1687 1951 2219 1942 1965 1559 1488 1477 1224 1196 1109 1181 927 671 614 585 521 608 502 480 379 460 479 453 221 34 31 17 10 16
0 0 0 0 0 151 1761 1537 1737 1562 1628 1398 1550 1608 1728 1930 1756 1831 1606 1629 1867 1435 1387 1290 1238 1074 718 720 555 538 495 416 325 215 231 305 499 437 257 29 19 4 0
0 0 0 0 0 0 1671 1667 1444 1409 1402 1281 1368 1582 1722 1678 1715 1657 1620 1435 1535 1551 1126 1280 1268 1203 1052 713 514 418 398 315 287 148 165 176 249 341 371 179 30 17 0
0 0 0 0 0 0 675 1510 1523 1367 1284 1293 1193 1404 1765 1545 1627 1643 1453 1371 1427 1471 1069 1030 1123 1270 999 990 800 410 430 465 365 476 396 333 227 174 243 252 95 62 0
0 7 16 0 0 0 0 1390 1380 1333 1257 1341 1173 1378 1761 1541 1459 1532 1477 1343 1285 1203 1084 949 1049 948 1142 990 870 572 391 225 208 177 165 206 251 191 98 183 162 73 55
0 0 0 0 4 0 0 1488 1398 1496 1199 1107 979 1265 1718 1728 1304 1267 1379 1237 1160 1098 1030 1062 899 861 955 1035 799 446 181 44 34 392 98 126 77 156 149 108 79 66 60
4 1 0 0 0 0 0 335 1321 1273 1154 995 1042 1262 1555 1769 1328 1255 1390 1244 1008 915 948 963 986 850 796 544 458 665 654 209 5 14 77 66 21 13 145 116 15 42 68
4 2 2 0 4 1 2 101 1410 1187 1414 1193 1266 1225 1380 1710 1499 1185 1193 1246 983 827 839 973 757 892 809 661 353 542 574 658 409 138 20 72 28 5 60 81 45 58 61
1 2 0 0 2 2 3 550 1486 1278 1543 1331 1403 1647 1544 1473 1317 1665 1179 1206 1107 856 833 898 768 686 729 644 573 543 587 486 251 255 180 141 93 48 12 16 128 55 51